Time,TemperatureF,DewpointF,PressureIn,WindDirection,WindDirectionDegrees,WindSpeedMPH,WindSpeedGustMPH,Humidity,HourlyPrecipIn,Conditions,Clouds,dailyrainin,SoftwareType,DateUTC
2013-04-22 00:00:00,46.5,32.1,30.25,East,92,2.0,2.0,57,0.00,CLR,SCT,0.00,WeatherDisplay:10.37,2013-04-22 04:00:00,
2013-04-22 00:01:00,46.4,31.5,30.25,East,91,2.3,2.3,56,0.00,CLR,SCT,0.00,WeatherDisplay:10.37,2013-04-22 04:01:00,
2013-04-22 00:02:00,46.4,32.0,30.25,East,91,0.0,0.0,57,0.00,CLR,SCT,0.00,WeatherDisplay:10.37,2013-04-22 04:02:00,
2013-04-22 00:03:00,46.2,31.8,30.25,East,91,0.0,0.0,57,0.00,CLR,SCT,0.00,WeatherDisplay:10.37,2013-04-22 04:03:00,
2013-04-22 00:06:00,46.1,31.7,30.25,East,91,0.0,0.0,57,0.00,,SCT,0.00,WeatherDisplay:10.37,2013-04-22 04:06:00,
2013-04-22 00:09:00,45.8,31.9,30.25,East,91,0.0,0.0,58,0.00,,SCT,0.00,WeatherDisplay:10.37,2013-04-22 04:09:00,
2013-04-22 00:10:00,45.7,32.2,30.25,East,92,0.0,0.0,59,0.00,,SCT,0.00,WeatherDisplay:10.37,2013-04-22 04:10:00,
2013-04-22 00:11:00,45.7,32.2,30.25,East,92,0.0,0.0,59,0.00,,SCT,0.00,WeatherDisplay:10.37,2013-04-22 04:11:00,
2013-04-22 00:12:00,45.5,32.0,30.25,East,92,0.0,0.0,59,0.00,,SCT,0.00,WeatherDisplay:10.37,2013-04-22 04:12:00,
2013-04-22 00:14:00,45.2,31.7,30.25,East,91,0.0,0.0,59,0.00,,SCT,0.00,WeatherDisplay:10.37,2013-04-22 04:14:00,
2013-04-22 00:16:00,45.1,31.2,30.25,East,91,0.0,0.0,58,0.00,,SCT,0.00,WeatherDisplay:10.37,2013-04-22 04:16:00,
2013-04-22 00:17:00,45.1,31.2,30.25,East,92,0.0,0.0,58,0.00,,SCT,0.00,WeatherDisplay:10.37,2013-04-22 04:17:00,
2013-04-22 00:18:00,44.9,31.0,30.25,East,91,0.0,0.0,58,0.00,,SCT,0.00,WeatherDisplay:10.37,2013-04-22 04:18:00,
2013-04-22 00:19:00,44.8,30.9,30.25,East,91,0.0,0.0,58,0.00,,SCT,0.00,WeatherDisplay:10.37,2013-04-22 04:19:00,
2013-04-22 00:22:00,44.6,31.1,30.25,East,92,0.0,0.0,59,0.00,,SCT,0.00,WeatherDisplay:10.37,2013-04-22 04:22:00,
2013-04-22 00:23:00,44.6,31.1,30.25,East,92,0.0,0.0,59,0.00,,SCT,0.00,WeatherDisplay:10.37,2013-04-22 04:23:00,
2013-04-22 00:24:00,44.5,31.5,30.25,East,91,0.0,0.0,60,0.00,,SCT,0.00,WeatherDisplay:10.37,2013-04-22 04:24:00,
2013-04-22 00:25:00,44.5,31.5,30.25,East,92,0.0,0.0,60,0.00,,SCT,0.00,WeatherDisplay:10.37,2013-04-22 04:25:00,
2013-04-22 00:27:00,44.3,31.3,30.25,East,91,0.0,0.0,60,0.00,,SCT,0.00,WeatherDisplay:10.37,2013-04-22 04:27:00,
2013-04-22 00:30:00,44.3,31.3,30.25,East,91,0.0,0.0,60,0.00,,SCT,0.00,WeatherDisplay:10.37,2013-04-22 04:30:00,
2013-04-22 00:31:00,44.3,31.3,30.25,East,92,0.0,0.0,60,0.00,,SCT,0.00,WeatherDisplay:10.37,2013-04-22 04:31:00,
2013-04-22 00:32:00,44.2,31.2,30.25,East,92,0.0,0.0,60,0.00,,SCT,0.00,WeatherDisplay:10.37,2013-04-22 04:32:00,
2013-04-22 00:36:00,44.1,31.1,30.25,East,91,0.0,0.0,60,0.00,,SCT,0.00,WeatherDisplay:10.37,2013-04-22 04:36:00,
2013-04-22 00:38:00,44.1,31.1,30.25,East,91,0.0,0.0,60,0.00,,SCT,0.00,WeatherDisplay:10.37,2013-04-22 04:38:00,
2013-04-22 00:40:00,43.9,30.9,30.25,East,91,0.0,0.0,60,0.00,,SCT,0.00,WeatherDisplay:10.37,2013-04-22 04:40:00,
2013-04-22 00:41:00,43.9,30.9,30.25,East,92,0.0,0.0,60,0.00,,SCT,0.00,WeatherDisplay:10.37,2013-04-22 04:41:00,
2013-04-22 00:44:00,43.8,31.6,30.25,East,91,0.0,0.0,62,0.00,,SCT,0.00,WeatherDisplay:10.37,2013-04-22 04:44:00,
2013-04-22 00:45:00,43.6,31.4,30.25,East,92,0.0,0.0,62,0.00,,SCT,0.00,WeatherDisplay:10.37,2013-04-22 04:45:00,
2013-04-22 00:46:00,43.6,31.4,30.25,East,91,0.0,0.0,62,0.00,,SCT,0.00,WeatherDisplay:10.37,2013-04-22 04:46:00,
2013-04-22 00:47:00,43.6,31.4,30.25,East,92,0.0,0.0,62,0.00,,SCT,0.00,WeatherDisplay:10.37,2013-04-22 04:47:00,
2013-04-22 00:50:00,43.5,30.9,30.25,East,91,0.0,0.0,61,0.00,,SCT,0.00,WeatherDisplay:10.37,2013-04-22 04:50:00,
2013-04-22 00:51:00,43.5,30.9,30.25,East,92,0.0,0.0,61,0.00,,SCT,0.00,WeatherDisplay:10.37,2013-04-22 04:51:00,
2013-04-22 00:55:00,43.2,31.1,30.25,East,91,0.0,0.0,62,0.00,,SCT,0.00,WeatherDisplay:10.37,2013-04-22 04:55:00,
2013-04-22 00:56:00,43.2,31.1,30.25,East,91,0.0,0.0,62,0.00,,SCT,0.00,WeatherDisplay:10.37,2013-04-22 04:56:00,
2013-04-22 00:57:00,43.2,31.1,30.25,East,92,0.0,0.0,62,0.00,,SCT,0.00,WeatherDisplay:10.37,2013-04-22 04:57:00,
2013-04-22 00:59:00,43.1,31.0,30.25,East,92,0.0,0.0,62,0.00,,SCT,0.00,WeatherDisplay:10.37,2013-04-22 04:59:00,
2013-04-22 01:00:00,43.1,31.0,30.25,East,92,0.0,0.0,62,0.00,,SCT,0.00,WeatherDisplay:10.37,2013-04-22 05:00:00,
2013-04-22 01:02:00,42.9,30.8,30.25,East,91,0.0,0.0,62,0.00,,SCT,0.00,WeatherDisplay:10.37,2013-04-22 05:02:00,
2013-04-22 01:06:00,42.8,31.1,30.24,East,91,0.0,0.0,63,0.00,,SCT,0.00,WeatherDisplay:10.37,2013-04-22 05:06:00,
2013-04-22 01:08:00,42.8,31.1,30.24,East,92,0.0,0.0,63,0.00,,SCT,0.00,WeatherDisplay:10.37,2013-04-22 05:08:00,
2013-04-22 01:09:00,42.6,31.3,30.24,East,91,0.0,0.0,64,0.00,,SCT,0.00,WeatherDisplay:10.37,2013-04-22 05:09:00,
2013-04-22 01:10:00,42.6,31.3,30.24,East,92,0.0,0.0,64,0.00,,SCT,0.00,WeatherDisplay:10.37,2013-04-22 05:10:00,
2013-04-22 01:14:00,42.5,31.6,30.24,East,91,0.0,0.0,65,0.00,,SCT,0.00,WeatherDisplay:10.37,2013-04-22 05:14:00,
2013-04-22 01:15:00,42.5,31.6,30.24,East,92,0.0,0.0,65,0.00,,SCT,0.00,WeatherDisplay:10.37,2013-04-22 05:15:00,
2013-04-22 01:17:00,42.3,31.4,30.24,East,91,0.0,0.0,65,0.00,,SCT,0.00,WeatherDisplay:10.37,2013-04-22 05:17:00,
2013-04-22 01:20:00,42.2,31.3,30.24,East,91,0.0,0.0,65,0.00,,SCT,0.00,WeatherDisplay:10.37,2013-04-22 05:20:00,
2013-04-22 01:21:00,42.2,31.3,30.24,East,92,0.0,0.0,65,0.00,,SCT,0.00,WeatherDisplay:10.37,2013-04-22 05:21:00,
2013-04-22 01:22:00,42.2,31.3,30.24,East,92,0.0,0.0,65,0.00,,SCT,0.00,WeatherDisplay:10.37,2013-04-22 05:22:00,
2013-04-22 01:27:00,41.9,31.0,30.24,East,92,0.0,0.0,65,0.00,,SCT,0.00,WeatherDisplay:10.37,2013-04-22 05:27:00,
2013-04-22 01:29:00,41.8,30.9,30.24,East,91,0.0,0.0,65,0.00,,SCT,0.00,WeatherDisplay:10.37,2013-04-22 05:29:00,
2013-04-22 01:30:00,41.8,30.9,30.24,East,92,0.0,0.0,65,0.00,,SCT,0.00,WeatherDisplay:10.37,2013-04-22 05:30:00,
2013-04-22 01:31:00,41.8,30.9,30.24,East,92,0.0,0.0,65,0.00,,SCT,0.00,WeatherDisplay:10.37,2013-04-22 05:31:00,
2013-04-22 01:32:00,41.6,30.7,30.24,East,91,0.0,0.0,65,0.00,,SCT,0.00,WeatherDisplay:10.37,2013-04-22 05:32:00,
2013-04-22 01:35:00,41.5,30.6,30.24,East,92,0.0,0.0,65,0.00,,SCT,0.00,WeatherDisplay:10.37,2013-04-22 05:35:00,
2013-04-22 01:38:00,41.3,30.8,30.24,East,92,0.0,0.0,66,0.00,,SCT,0.00,WeatherDisplay:10.37,2013-04-22 05:38:00,
2013-04-22 01:40:00,41.2,30.3,30.24,East,91,0.0,0.0,65,0.00,,SCT,0.00,WeatherDisplay:10.37,2013-04-22 05:40:00,
2013-04-22 01:42:00,41.2,30.7,30.24,East,91,0.0,0.0,66,0.00,,SCT,0.00,WeatherDisplay:10.37,2013-04-22 05:42:00,
2013-04-22 01:43:00,41.2,30.7,30.24,East,91,0.0,0.0,66,0.00,,SCT,0.00,WeatherDisplay:10.37,2013-04-22 05:43:00,
2013-04-22 01:44:00,41.1,30.6,30.24,East,91,0.0,0.0,66,0.00,,SCT,0.00,WeatherDisplay:10.37,2013-04-22 05:44:00,
2013-04-22 01:46:00,41.1,30.6,30.24,East,91,0.0,0.0,66,0.00,,SCT,0.00,WeatherDisplay:10.37,2013-04-22 05:46:00,
2013-04-22 01:49:00,41.1,30.6,30.24,East,91,0.0,0.0,66,0.00,,SCT,0.00,WeatherDisplay:10.37,2013-04-22 05:49:00,
2013-04-22 01:51:00,41.1,30.6,30.24,East,91,0.0,0.0,66,0.00,,SCT,0.00,WeatherDisplay:10.37,2013-04-22 05:51:00,
2013-04-22 01:52:00,41.1,30.6,30.24,East,92,0.0,0.0,66,0.00,,SCT,0.00,WeatherDisplay:10.37,2013-04-22 05:52:00,
2013-04-22 01:54:00,40.9,30.8,30.24,East,91,0.0,0.0,67,0.00,,SCT,0.00,WeatherDisplay:10.37,2013-04-22 05:54:00,
2013-04-22 01:57:00,40.8,30.7,30.24,East,91,0.0,0.0,67,0.00,,SCT,0.00,WeatherDisplay:10.37,2013-04-22 05:57:00,
2013-04-22 01:59:00,40.8,30.3,30.24,East,91,0.0,0.0,66,0.00,,SCT,0.00,WeatherDisplay:10.37,2013-04-22 05:59:00,
2013-04-22 02:00:00,40.6,30.1,30.24,East,91,0.0,0.0,66,0.00,,SCT,0.00,WeatherDisplay:10.37,2013-04-22 06:00:00,
2013-04-22 02:03:00,40.6,30.5,30.23,East,92,0.0,0.0,67,0.00,,SCT,0.00,WeatherDisplay:10.37,2013-04-22 06:03:00,
2013-04-22 02:04:00,40.6,30.5,30.23,East,91,0.0,0.0,67,0.00,,SCT,0.00,WeatherDisplay:10.37,2013-04-22 06:04:00,
2013-04-22 02:05:00,40.5,30.4,30.23,East,92,0.0,0.0,67,0.00,,SCT,0.00,WeatherDisplay:10.37,2013-04-22 06:05:00,
2013-04-22 02:08:00,40.5,30.4,30.23,East,91,0.0,0.0,67,0.00,,SCT,0.00,WeatherDisplay:10.37,2013-04-22 06:08:00,
2013-04-22 02:10:00,40.3,30.2,30.23,East,92,0.0,0.0,67,0.00,,SCT,0.00,WeatherDisplay:10.37,2013-04-22 06:10:00,
2013-04-22 02:15:00,40.2,30.5,30.23,East,91,0.0,0.0,68,0.00,,SCT,0.00,WeatherDisplay:10.37,2013-04-22 06:15:00,
2013-04-22 02:16:00,40.2,30.5,30.22,East,92,0.0,0.0,68,0.00,,SCT,0.00,WeatherDisplay:10.37,2013-04-22 06:16:00,
2013-04-22 02:17:00,40.2,30.1,30.22,East,91,0.0,0.0,67,0.00,,SCT,0.00,WeatherDisplay:10.37,2013-04-22 06:17:00,
2013-04-22 02:18:00,40.2,30.1,30.22,East,92,0.0,0.0,67,0.00,,SCT,0.00,WeatherDisplay:10.37,2013-04-22 06:18:00,
2013-04-22 02:21:00,40.1,30.0,30.22,East,91,0.0,0.0,67,0.00,,SCT,0.00,WeatherDisplay:10.37,2013-04-22 06:21:00,
2013-04-22 02:22:00,40.1,30.0,30.22,East,92,0.0,0.0,67,0.00,,SCT,0.00,WeatherDisplay:10.37,2013-04-22 06:22:00,
2013-04-22 02:23:00,40.1,30.0,30.22,East,91,0.0,0.0,67,0.00,,SCT,0.00,WeatherDisplay:10.37,2013-04-22 06:23:00,
2013-04-22 02:24:00,39.9,29.8,30.22,East,91,0.0,0.0,67,0.00,,SCT,0.00,WeatherDisplay:10.37,2013-04-22 06:24:00,
2013-04-22 02:27:00,39.9,29.8,30.22,East,91,0.0,0.0,67,0.00,,SCT,0.00,WeatherDisplay:10.37,2013-04-22 06:27:00,
2013-04-22 02:29:00,39.8,30.1,30.22,East,91,0.0,0.0,68,0.00,,SCT,0.00,WeatherDisplay:10.37,2013-04-22 06:29:00,
2013-04-22 02:30:00,39.8,30.1,30.22,East,91,0.0,0.0,68,0.00,,SCT,0.00,WeatherDisplay:10.37,2013-04-22 06:30:00,
2013-04-22 02:34:00,39.6,29.9,30.22,East,91,0.0,0.0,68,0.00,,SCT,0.00,WeatherDisplay:10.37,2013-04-22 06:34:00,
2013-04-22 02:35:00,39.6,30.3,30.22,East,91,0.0,0.0,69,0.00,,SCT,0.00,WeatherDisplay:10.37,2013-04-22 06:35:00,
2013-04-22 02:36:00,39.6,29.9,30.22,East,92,0.0,0.0,68,0.00,,SCT,0.00,WeatherDisplay:10.37,2013-04-22 06:36:00,
2013-04-22 02:38:00,39.6,29.9,30.22,East,91,0.0,0.0,68,0.00,,SCT,0.00,WeatherDisplay:10.37,2013-04-22 06:38:00,
2013-04-22 02:41:00,39.6,30.3,30.22,East,91,0.0,0.0,69,0.00,,SCT,0.00,WeatherDisplay:10.37,2013-04-22 06:41:00,
2013-04-22 02:43:00,39.6,30.3,30.22,East,92,0.0,0.0,69,0.00,,SCT,0.00,WeatherDisplay:10.37,2013-04-22 06:43:00,
2013-04-22 02:45:00,39.6,30.3,30.22,East,91,0.0,0.0,69,0.00,,SCT,0.00,WeatherDisplay:10.37,2013-04-22 06:45:00,
2013-04-22 02:46:00,39.5,30.2,30.22,East,91,0.0,0.0,69,0.00,,SCT,0.00,WeatherDisplay:10.37,2013-04-22 06:46:00,
2013-04-22 02:48:00,39.5,30.2,30.22,East,91,0.0,0.0,69,0.00,,SCT,0.00,WeatherDisplay:10.37,2013-04-22 06:48:00,
2013-04-22 02:49:00,39.5,30.2,30.22,East,91,0.0,0.0,69,0.00,,SCT,0.00,WeatherDisplay:10.37,2013-04-22 06:49:00,
2013-04-22 02:51:00,39.3,30.0,30.22,East,91,0.0,0.0,69,0.00,,SCT,0.00,WeatherDisplay:10.37,2013-04-22 06:51:00,
2013-04-22 02:52:00,39.3,30.0,30.22,East,91,0.0,0.0,69,0.00,,SCT,0.00,WeatherDisplay:10.37,2013-04-22 06:52:00,
2013-04-22 02:53:00,39.3,30.0,30.22,East,92,0.0,0.0,69,0.00,,SCT,0.00,WeatherDisplay:10.37,2013-04-22 06:53:00,
2013-04-22 02:55:00,39.2,30.2,30.23,East,91,0.0,0.0,70,0.00,,SCT,0.00,WeatherDisplay:10.37,2013-04-22 06:55:00,
2013-04-22 02:57:00,39.2,30.2,30.23,East,91,0.0,0.0,70,0.00,,SCT,0.00,WeatherDisplay:10.37,2013-04-22 06:57:00,
2013-04-22 03:00:00,39.1,30.1,30.23,East,91,0.0,0.0,70,0.00,,SCT,0.00,WeatherDisplay:10.37,2013-04-22 07:00:00,
2013-04-22 03:02:00,39.1,30.1,30.23,East,91,0.0,0.0,70,0.00,,SCT,0.00,WeatherDisplay:10.37,2013-04-22 07:02:00,
2013-04-22 03:05:00,38.9,30.3,30.23,East,91,0.0,0.0,71,0.00,,SCT,0.00,WeatherDisplay:10.37,2013-04-22 07:05:00,
2013-04-22 03:06:00,38.9,30.3,30.23,East,92,0.0,0.0,71,0.00,,SCT,0.00,WeatherDisplay:10.37,2013-04-22 07:06:00,
2013-04-22 03:08:00,38.8,29.8,30.22,East,92,0.0,0.0,70,0.00,,SCT,0.00,WeatherDisplay:10.37,2013-04-22 07:08:00,
2013-04-22 03:10:00,38.8,30.2,30.22,East,92,0.0,0.0,71,0.00,,SCT,0.00,WeatherDisplay:10.37,2013-04-22 07:10:00,
2013-04-22 03:11:00,38.8,30.2,30.22,East,91,0.0,0.0,71,0.00,,SCT,0.00,WeatherDisplay:10.37,2013-04-22 07:11:00,
2013-04-22 03:13:00,38.8,30.2,30.22,East,92,0.0,0.0,71,0.00,,SCT,0.00,WeatherDisplay:10.37,2013-04-22 07:13:00,
2013-04-22 03:14:00,38.8,29.8,30.22,East,91,0.0,0.0,70,0.00,,SCT,0.00,WeatherDisplay:10.37,2013-04-22 07:14:00,
2013-04-22 03:15:00,38.8,29.8,30.22,East,91,0.0,0.0,70,0.00,,SCT,0.00,WeatherDisplay:10.37,2013-04-22 07:15:00,
2013-04-22 03:16:00,38.8,30.2,30.22,East,91,0.0,0.0,71,0.00,,SCT,0.00,WeatherDisplay:10.37,2013-04-22 07:16:00,
2013-04-22 03:17:00,38.8,30.2,30.22,East,91,0.0,0.0,71,0.00,,SCT,0.00,WeatherDisplay:10.37,2013-04-22 07:17:00,
2013-04-22 03:21:00,38.6,30.0,30.22,East,91,0.0,0.0,71,0.00,,SCT,0.00,WeatherDisplay:10.37,2013-04-22 07:21:00,
2013-04-22 03:22:00,38.6,30.0,30.22,East,92,0.0,0.0,71,0.00,,SCT,0.00,WeatherDisplay:10.37,2013-04-22 07:22:00,
2013-04-22 03:24:00,38.6,30.0,30.22,East,91,0.0,0.0,71,0.00,,SCT,0.00,WeatherDisplay:10.37,2013-04-22 07:24:00,
2013-04-22 03:26:00,38.5,29.9,30.22,East,91,0.0,0.0,71,0.00,,SCT,0.00,WeatherDisplay:10.37,2013-04-22 07:26:00,
2013-04-22 03:27:00,38.5,30.3,30.22,East,91,0.0,0.0,72,0.00,,SCT,0.00,WeatherDisplay:10.37,2013-04-22 07:27:00,
2013-04-22 03:28:00,38.5,30.3,30.22,East,91,0.0,0.0,72,0.00,,SCT,0.00,WeatherDisplay:10.37,2013-04-22 07:28:00,
2013-04-22 03:31:00,38.5,30.3,30.22,East,91,0.0,0.0,72,0.00,,SCT,0.00,WeatherDisplay:10.37,2013-04-22 07:31:00,
2013-04-22 03:33:00,38.3,29.7,30.22,East,91,0.0,0.0,71,0.00,,SCT,0.00,WeatherDisplay:10.37,2013-04-22 07:33:00,
2013-04-22 03:34:00,38.3,29.7,30.22,East,91,0.0,0.0,71,0.00,,SCT,0.00,WeatherDisplay:10.37,2013-04-22 07:34:00,
2013-04-22 03:37:00,38.2,29.6,30.22,East,92,0.0,0.0,71,0.00,,SCT,0.00,WeatherDisplay:10.37,2013-04-22 07:37:00,
2013-04-22 03:38:00,38.0,29.8,30.22,East,91,0.0,0.0,72,0.00,,SCT,0.00,WeatherDisplay:10.37,2013-04-22 07:38:00,
2013-04-22 03:40:00,38.0,29.8,30.22,East,91,0.0,0.0,72,0.00,,SCT,0.00,WeatherDisplay:10.37,2013-04-22 07:40:00,
2013-04-22 03:43:00,37.9,29.7,30.22,East,92,0.0,0.0,72,0.00,,SCT,0.00,WeatherDisplay:10.37,2013-04-22 07:43:00,
2013-04-22 03:45:00,37.9,29.7,30.22,East,92,0.0,0.0,72,0.00,,SCT,0.00,WeatherDisplay:10.37,2013-04-22 07:45:00,
2013-04-22 03:49:00,37.8,29.6,30.22,East,91,0.0,0.0,72,0.00,,SCT,0.00,WeatherDisplay:10.37,2013-04-22 07:49:00,
2013-04-22 03:50:00,37.8,29.6,30.22,East,91,0.0,0.0,72,0.00,,SCT,0.00,WeatherDisplay:10.37,2013-04-22 07:50:00,
2013-04-22 03:51:00,37.8,29.6,30.22,East,91,0.0,0.0,72,0.00,,SCT,0.00,WeatherDisplay:10.37,2013-04-22 07:51:00,
2013-04-22 03:53:00,37.6,29.4,30.22,East,91,0.0,0.0,72,0.00,,SCT,0.00,WeatherDisplay:10.37,2013-04-22 07:53:00,
2013-04-22 03:55:00,37.6,29.0,30.22,East,91,0.0,0.0,71,0.00,,SCT,0.00,WeatherDisplay:10.37,2013-04-22 07:55:00,
2013-04-22 03:58:00,37.5,28.9,30.22,East,92,0.0,0.0,71,0.00,,SCT,0.00,WeatherDisplay:10.37,2013-04-22 07:58:00,
2013-04-22 03:59:00,37.5,28.9,30.22,East,92,0.0,0.0,71,0.00,,SCT,0.00,WeatherDisplay:10.37,2013-04-22 07:59:00,
2013-04-22 04:00:00,37.5,28.9,30.22,East,91,0.0,0.0,71,0.00,,SCT,0.00,WeatherDisplay:10.37,2013-04-22 08:00:00,
2013-04-22 04:01:00,37.5,29.3,30.22,East,91,0.0,0.0,72,0.00,,SCT,0.00,WeatherDisplay:10.37,2013-04-22 08:01:00,
2013-04-22 04:03:00,37.5,28.9,30.22,East,91,0.0,0.0,71,0.00,,SCT,0.00,WeatherDisplay:10.37,2013-04-22 08:03:00,
2013-04-22 04:08:00,37.3,28.8,30.22,East,91,0.0,0.0,71,0.00,,SCT,0.00,WeatherDisplay:10.37,2013-04-22 08:08:00,
2013-04-22 04:10:00,37.3,28.8,30.22,East,91,0.0,0.0,71,0.00,,SCT,0.00,WeatherDisplay:10.37,2013-04-22 08:10:00,
2013-04-22 04:11:00,37.3,28.8,30.22,East,91,0.0,0.0,71,0.00,,SCT,0.00,WeatherDisplay:10.37,2013-04-22 08:11:00,
2013-04-22 04:13:00,37.3,28.8,30.22,East,91,0.0,0.0,71,0.00,,SCT,0.00,WeatherDisplay:10.37,2013-04-22 08:13:00,
2013-04-22 04:15:00,37.3,29.1,30.22,East,91,0.0,0.0,72,0.00,,SCT,0.00,WeatherDisplay:10.37,2013-04-22 08:15:00,
2013-04-22 04:16:00,37.3,29.1,30.22,East,91,0.0,0.0,72,0.00,,SCT,0.00,WeatherDisplay:10.37,2013-04-22 08:16:00,
2013-04-22 04:18:00,37.3,29.1,30.22,East,91,0.0,0.0,72,0.00,,SCT,0.00,WeatherDisplay:10.37,2013-04-22 08:18:00,
2013-04-22 04:20:00,37.3,29.1,30.22,East,92,0.0,0.0,72,0.00,,SCT,0.00,WeatherDisplay:10.37,2013-04-22 08:20:00,
2013-04-22 04:22:00,37.3,29.1,30.22,East,92,0.0,0.0,72,0.00,,SCT,0.00,WeatherDisplay:10.37,2013-04-22 08:22:00,
2013-04-22 04:23:00,37.3,29.1,30.22,East,91,0.0,0.0,72,0.00,,SCT,0.00,WeatherDisplay:10.37,2013-04-22 08:23:00,
2013-04-22 04:24:00,37.3,29.4,30.22,East,91,0.0,0.0,73,0.00,,SCT,0.00,WeatherDisplay:10.37,2013-04-22 08:24:00,
2013-04-22 04:26:00,37.3,29.1,30.22,East,91,0.0,0.0,72,0.00,,SCT,0.00,WeatherDisplay:10.37,2013-04-22 08:26:00,
2013-04-22 04:29:00,37.5,29.3,30.22,East,91,0.0,0.0,72,0.00,,SCT,0.00,WeatherDisplay:10.37,2013-04-22 08:29:00,
2013-04-22 04:30:00,37.5,29.6,30.22,East,91,0.0,0.0,73,0.00,,SCT,0.00,WeatherDisplay:10.37,2013-04-22 08:30:00,
2013-04-22 04:31:00,37.5,29.3,30.22,East,92,0.0,0.0,72,0.00,,SCT,0.00,WeatherDisplay:10.37,2013-04-22 08:31:00,
2013-04-22 04:34:00,37.5,29.3,30.22,East,91,0.0,0.0,72,0.00,,SCT,0.00,WeatherDisplay:10.37,2013-04-22 08:34:00,
2013-04-22 04:36:00,37.5,29.6,30.22,East,91,0.0,0.0,73,0.00,,SCT,0.00,WeatherDisplay:10.37,2013-04-22 08:36:00,
2013-04-22 04:37:00,37.3,29.4,30.22,East,91,0.0,0.0,73,0.00,,SCT,0.00,WeatherDisplay:10.37,2013-04-22 08:37:00,
2013-04-22 04:38:00,37.3,29.4,30.22,East,91,0.0,0.0,73,0.00,,SCT,0.00,WeatherDisplay:10.37,2013-04-22 08:38:00,
2013-04-22 04:39:00,37.3,29.4,30.23,East,92,0.0,0.0,73,0.00,,SCT,0.00,WeatherDisplay:10.37,2013-04-22 08:39:00,
2013-04-22 04:41:00,37.3,29.4,30.23,East,91,0.0,0.0,73,0.00,,SCT,0.00,WeatherDisplay:10.37,2013-04-22 08:41:00,
2013-04-22 04:43:00,37.3,29.4,30.23,East,91,0.0,0.0,73,0.00,,SCT,0.00,WeatherDisplay:10.37,2013-04-22 08:43:00,
2013-04-22 04:44:00,37.3,29.4,30.23,East,91,0.0,0.0,73,0.00,,SCT,0.00,WeatherDisplay:10.37,2013-04-22 08:44:00,
2013-04-22 04:46:00,37.2,29.3,30.22,East,91,0.0,0.0,73,0.00,,SCT,0.00,WeatherDisplay:10.37,2013-04-22 08:46:00,
2013-04-22 04:49:00,37.2,29.3,30.23,East,92,0.0,0.0,73,0.00,,SCT,0.00,WeatherDisplay:10.37,2013-04-22 08:49:00,
2013-04-22 04:50:00,37.2,29.3,30.23,East,91,0.0,0.0,73,0.00,,SCT,0.00,WeatherDisplay:10.37,2013-04-22 08:50:00,
2013-04-22 04:51:00,37.2,29.3,30.23,East,92,0.0,0.0,73,0.00,,SCT,0.00,WeatherDisplay:10.37,2013-04-22 08:51:00,
2013-04-22 04:54:00,37.2,29.3,30.22,East,91,0.0,0.0,73,0.00,,SCT,0.00,WeatherDisplay:10.37,2013-04-22 08:54:00,
2013-04-22 04:55:00,37.0,29.1,30.22,East,92,0.0,0.0,73,0.00,,SCT,0.00,WeatherDisplay:10.37,2013-04-22 08:55:00,
2013-04-22 04:56:00,37.0,29.1,30.23,East,91,0.0,0.0,73,0.00,,SCT,0.00,WeatherDisplay:10.37,2013-04-22 08:56:00,
2013-04-22 04:58:00,37.0,29.1,30.23,East,91,0.0,0.0,73,0.00,,SCT,0.00,WeatherDisplay:10.37,2013-04-22 08:58:00,
2013-04-22 04:59:00,37.0,29.1,30.23,East,91,0.0,0.0,73,0.00,,SCT,0.00,WeatherDisplay:10.37,2013-04-22 08:59:00,
2013-04-22 05:02:00,36.9,29.1,30.23,East,91,0.0,0.0,73,0.00,,SCT,0.00,WeatherDisplay:10.37,2013-04-22 09:02:00,
2013-04-22 05:03:00,36.9,29.1,30.23,East,92,0.0,0.0,73,0.00,,SCT,0.00,WeatherDisplay:10.37,2013-04-22 09:03:00,
2013-04-22 05:04:00,36.9,29.1,30.23,East,91,0.0,0.0,73,0.00,,SCT,0.00,WeatherDisplay:10.37,2013-04-22 09:04:00,
2013-04-22 05:07:00,36.8,29.0,30.23,East,91,0.0,0.0,73,0.00,,SCT,0.00,WeatherDisplay:10.37,2013-04-22 09:07:00,
2013-04-22 05:09:00,36.8,29.0,30.22,East,92,0.0,0.0,73,0.00,,SCT,0.00,WeatherDisplay:10.37,2013-04-22 09:09:00,
2013-04-22 05:10:00,36.8,29.0,30.22,East,92,0.0,0.0,73,0.00,,SCT,0.00,WeatherDisplay:10.37,2013-04-22 09:10:00,
2013-04-22 05:11:00,36.8,29.0,30.23,East,91,0.0,0.0,73,0.00,,SCT,0.00,WeatherDisplay:10.37,2013-04-22 09:11:00,
2013-04-22 05:15:00,36.6,28.8,30.23,East,91,0.0,0.0,73,0.00,,SCT,0.00,WeatherDisplay:10.37,2013-04-22 09:15:00,
2013-04-22 05:17:00,36.6,28.8,30.22,East,91,0.0,0.0,73,0.00,,SCT,0.00,WeatherDisplay:10.37,2013-04-22 09:17:00,
2013-04-22 05:19:00,36.5,28.7,30.22,East,92,0.0,0.0,73,0.00,,SCT,0.00,WeatherDisplay:10.37,2013-04-22 09:19:00,
2013-04-22 05:20:00,36.5,28.7,30.22,East,91,0.0,0.0,73,0.00,,SCT,0.00,WeatherDisplay:10.37,2013-04-22 09:20:00,
2013-04-22 05:21:00,36.5,28.7,30.22,East,91,0.0,0.0,73,0.00,,SCT,0.00,WeatherDisplay:10.37,2013-04-22 09:21:00,
2013-04-22 05:22:00,36.5,28.7,30.22,East,92,0.0,0.0,73,0.00,,SCT,0.00,WeatherDisplay:10.37,2013-04-22 09:22:00,
2013-04-22 05:23:00,36.5,28.7,30.22,East,92,0.0,0.0,73,0.00,,SCT,0.00,WeatherDisplay:10.37,2013-04-22 09:23:00,
2013-04-22 05:25:00,36.6,28.8,30.22,East,91,0.0,0.0,73,0.00,,SCT,0.00,WeatherDisplay:10.37,2013-04-22 09:25:00,
2013-04-22 05:26:00,36.6,29.1,30.22,East,92,0.0,0.0,74,0.00,,SCT,0.00,WeatherDisplay:10.37,2013-04-22 09:26:00,
2013-04-22 05:27:00,36.6,29.1,30.22,East,91,0.0,0.0,74,0.00,,SCT,0.00,WeatherDisplay:10.37,2013-04-22 09:27:00,
2013-04-22 05:30:00,36.6,28.8,30.23,East,92,0.0,0.0,73,0.00,,SCT,0.00,WeatherDisplay:10.37,2013-04-22 09:30:00,
2013-04-22 05:31:00,36.6,28.8,30.23,East,91,0.0,0.0,73,0.00,,SCT,0.00,WeatherDisplay:10.37,2013-04-22 09:31:00,
2013-04-22 05:33:00,36.6,28.8,30.23,East,91,0.0,0.0,73,0.00,,SCT,0.00,WeatherDisplay:10.37,2013-04-22 09:33:00,
2013-04-22 05:34:00,36.6,29.1,30.23,East,91,0.0,0.0,74,0.00,,SCT,0.00,WeatherDisplay:10.37,2013-04-22 09:34:00,
2013-04-22 05:36:00,36.6,29.1,30.23,East,91,0.0,0.0,74,0.00,,SCT,0.00,WeatherDisplay:10.37,2013-04-22 09:36:00,
2013-04-22 05:38:00,36.6,29.1,30.23,East,91,0.0,0.0,74,0.00,,SCT,0.00,WeatherDisplay:10.37,2013-04-22 09:38:00,
2013-04-22 05:39:00,36.6,29.1,30.23,East,92,0.0,0.0,74,0.00,,SCT,0.00,WeatherDisplay:10.37,2013-04-22 09:39:00,
2013-04-22 05:40:00,36.6,29.1,30.23,East,91,0.0,0.0,74,0.00,,SCT,0.00,WeatherDisplay:10.37,2013-04-22 09:40:00,
2013-04-22 05:43:00,36.6,29.1,30.23,East,91,0.0,0.0,74,0.00,,SCT,0.00,WeatherDisplay:10.37,2013-04-22 09:43:00,
2013-04-22 05:44:00,36.6,29.4,30.23,East,91,0.0,0.0,75,0.00,,SCT,0.00,WeatherDisplay:10.37,2013-04-22 09:44:00,
2013-04-22 05:45:00,36.6,29.4,30.23,East,91,0.0,0.0,75,0.00,,SCT,0.00,WeatherDisplay:10.37,2013-04-22 09:45:00,
2013-04-22 05:48:00,36.5,29.0,30.23,East,91,0.0,0.0,74,0.00,,SCT,0.00,WeatherDisplay:10.37,2013-04-22 09:48:00,
2013-04-22 05:49:00,36.5,29.0,30.23,East,91,0.0,0.0,74,0.00,,SCT,0.00,WeatherDisplay:10.37,2013-04-22 09:49:00,
2013-04-22 05:51:00,36.5,29.0,30.23,East,91,0.0,0.0,74,0.00,,SCT,0.00,WeatherDisplay:10.37,2013-04-22 09:51:00,
2013-04-22 05:52:00,36.5,29.0,30.23,East,91,0.0,0.0,74,0.00,,SCT,0.00,WeatherDisplay:10.37,2013-04-22 09:52:00,
2013-04-22 05:55:00,36.5,29.0,30.24,East,91,0.0,0.0,74,0.00,,SCT,0.00,WeatherDisplay:10.37,2013-04-22 09:55:00,
2013-04-22 05:57:00,36.5,29.3,30.24,East,91,0.0,0.0,75,0.00,,SCT,0.00,WeatherDisplay:10.37,2013-04-22 09:57:00,
2013-04-22 05:58:00,36.5,29.0,30.24,East,91,0.0,0.0,74,0.00,,SCT,0.00,WeatherDisplay:10.37,2013-04-22 09:58:00,
2013-04-22 06:02:00,36.3,29.1,30.24,East,91,0.0,0.0,75,0.00,,SCT,0.00,WeatherDisplay:10.37,2013-04-22 10:02:00,
2013-04-22 06:03:00,36.3,29.1,30.24,East,91,0.0,0.0,75,0.00,,SCT,0.00,WeatherDisplay:10.37,2013-04-22 10:03:00,
2013-04-22 06:07:00,36.2,29.0,30.24,East,91,0.0,0.0,75,0.00,,SCT,0.00,WeatherDisplay:10.37,2013-04-22 10:07:00,
2013-04-22 06:08:00,36.2,29.0,30.24,East,91,0.0,0.0,75,0.00,,SCT,0.00,WeatherDisplay:10.37,2013-04-22 10:08:00,
2013-04-22 06:09:00,36.2,29.0,30.24,East,91,0.0,0.0,75,0.00,,SCT,0.00,WeatherDisplay:10.37,2013-04-22 10:09:00,
2013-04-22 06:11:00,36.0,28.8,30.24,East,91,0.0,0.0,75,0.00,,SCT,0.00,WeatherDisplay:10.37,2013-04-22 10:11:00,
2013-04-22 06:13:00,36.0,28.8,30.24,East,92,0.0,0.0,75,0.00,,SCT,0.00,WeatherDisplay:10.37,2013-04-22 10:13:00,
2013-04-22 06:16:00,36.0,28.8,30.24,East,91,0.0,0.0,75,0.00,,SCT,0.00,WeatherDisplay:10.37,2013-04-22 10:16:00,
2013-04-22 06:17:00,36.0,28.8,30.24,East,91,0.0,0.0,75,0.00,,SCT,0.00,WeatherDisplay:10.37,2013-04-22 10:17:00,
2013-04-22 06:18:00,36.0,28.8,30.24,East,91,0.0,0.0,75,0.00,,SCT,0.00,WeatherDisplay:10.37,2013-04-22 10:18:00,
2013-04-22 06:19:00,35.9,28.7,30.24,East,91,0.0,0.0,75,0.00,CLR,SCT,0.00,WeatherDisplay:10.37,2013-04-22 10:19:00,
2013-04-22 06:23:00,35.8,28.6,30.24,East,91,0.0,0.0,75,0.00,CLR,SCT,0.00,WeatherDisplay:10.37,2013-04-22 10:23:00,
2013-04-22 06:24:00,35.8,28.6,30.24,East,91,0.0,0.0,75,0.00,CLR,SCT,0.00,WeatherDisplay:10.37,2013-04-22 10:24:00,
2013-04-22 06:26:00,35.8,29.0,30.24,East,91,0.0,0.0,76,0.00,CLR,SCT,0.00,WeatherDisplay:10.37,2013-04-22 10:26:00,
2013-04-22 06:29:00,35.9,29.1,30.24,East,92,0.0,0.0,76,0.00,CLR,SCT,0.00,WeatherDisplay:10.37,2013-04-22 10:29:00,
2013-04-22 06:30:00,35.9,29.1,30.24,East,91,0.0,0.0,76,0.00,CLR,SCT,0.00,WeatherDisplay:10.37,2013-04-22 10:30:00,
2013-04-22 06:31:00,35.9,29.1,30.25,East,91,0.0,0.0,76,0.00,CLR,SCT,0.00,WeatherDisplay:10.37,2013-04-22 10:31:00,
2013-04-22 06:33:00,35.9,29.1,30.25,East,91,0.0,0.0,76,0.00,CLR,SCT,0.00,WeatherDisplay:10.37,2013-04-22 10:33:00,
2013-04-22 06:36:00,35.8,29.0,30.25,East,91,0.0,0.0,76,0.00,CLR,SCT,0.00,WeatherDisplay:10.37,2013-04-22 10:36:00,
2013-04-22 06:37:00,35.8,29.0,30.25,East,91,0.0,0.0,76,0.00,CLR,SCT,0.00,WeatherDisplay:10.37,2013-04-22 10:37:00,
2013-04-22 06:38:00,35.8,29.0,30.25,East,91,0.0,0.0,76,0.00,CLR,SCT,0.00,WeatherDisplay:10.37,2013-04-22 10:38:00,
2013-04-22 06:40:00,35.8,29.0,30.25,ESE,109,0.0,0.0,76,0.00,CLR,SCT,0.00,WeatherDisplay:10.37,2013-04-22 10:40:00,
2013-04-22 06:42:00,35.8,29.0,30.25,ESE,109,0.0,0.0,76,0.00,CLR,SCT,0.00,WeatherDisplay:10.37,2013-04-22 10:42:00,
2013-04-22 06:44:00,35.8,29.0,30.25,ESE,109,0.0,0.0,76,0.00,CLR,SCT,0.00,WeatherDisplay:10.37,2013-04-22 10:44:00,
2013-04-22 06:46:00,35.8,29.0,30.25,ESE,109,0.0,0.0,76,0.00,CLR,SCT,0.00,WeatherDisplay:10.37,2013-04-22 10:46:00,
2013-04-22 06:50:00,35.8,29.0,30.25,ESE,109,0.0,0.0,76,0.00,CLR,SCT,0.00,WeatherDisplay:10.37,2013-04-22 10:50:00,
2013-04-22 06:51:00,35.8,29.0,30.26,ESE,109,0.0,0.0,76,0.00,CLR,SCT,0.00,WeatherDisplay:10.37,2013-04-22 10:51:00,
2013-04-22 06:52:00,35.6,28.8,30.26,ESE,109,0.0,0.0,76,0.00,CLR,SCT,0.00,WeatherDisplay:10.37,2013-04-22 10:52:00,
2013-04-22 06:55:00,35.6,28.8,30.25,ESE,109,0.0,0.0,76,0.00,CLR,SCT,0.00,WeatherDisplay:10.37,2013-04-22 10:55:00,
2013-04-22 06:56:00,35.6,28.8,30.26,ESE,109,0.0,0.0,76,0.00,CLR,SCT,0.00,WeatherDisplay:10.37,2013-04-22 10:56:00,
2013-04-22 06:57:00,35.6,28.8,30.26,ESE,109,0.0,0.0,76,0.00,CLR,SCT,0.00,WeatherDisplay:10.37,2013-04-22 10:57:00,
2013-04-22 06:58:00,35.5,28.7,30.26,ESE,112,0.0,0.0,76,0.00,CLR,SCT,0.00,WeatherDisplay:10.37,2013-04-22 10:58:00,
2013-04-22 07:00:00,35.5,28.7,30.26,ESE,112,0.0,0.0,76,0.00,CLR,SCT,0.00,WeatherDisplay:10.37,2013-04-22 11:00:00,
2013-04-22 07:01:00,35.5,28.7,30.26,ESE,112,0.0,0.0,76,0.00,CLR,SCT,0.00,WeatherDisplay:10.37,2013-04-22 11:01:00,
2013-04-22 07:02:00,35.5,28.7,30.26,ESE,112,0.0,0.0,76,0.00,CLR,SCT,0.00,WeatherDisplay:10.37,2013-04-22 11:02:00,
2013-04-22 07:04:00,35.6,29.1,30.26,East,84,0.0,0.0,77,0.00,CLR,SCT,0.00,WeatherDisplay:10.37,2013-04-22 11:04:00,
2013-04-22 07:06:00,35.6,29.1,30.26,East,80,0.0,0.0,77,0.00,CLR,SCT,0.00,WeatherDisplay:10.37,2013-04-22 11:06:00,
2013-04-22 07:07:00,35.6,29.1,30.26,East,80,0.0,0.0,77,0.00,CLR,SCT,0.00,WeatherDisplay:10.37,2013-04-22 11:07:00,
2013-04-22 07:09:00,35.6,29.1,30.26,East,80,0.0,0.0,77,0.00,CLR,SCT,0.00,WeatherDisplay:10.37,2013-04-22 11:09:00,
2013-04-22 07:10:00,35.6,29.1,30.27,East,80,0.0,0.0,77,0.00,CLR,SCT,0.00,WeatherDisplay:10.37,2013-04-22 11:10:00,
2013-04-22 07:12:00,35.6,29.1,30.27,East,80,0.0,0.0,77,0.00,CLR,SCT,0.00,WeatherDisplay:10.37,2013-04-22 11:12:00,
2013-04-22 07:14:00,35.6,28.8,30.27,East,80,0.0,0.0,76,0.00,CLR,SCT,0.00,WeatherDisplay:10.37,2013-04-22 11:14:00,
2013-04-22 07:15:00,35.6,29.1,30.27,East,80,0.0,0.0,77,0.00,CLR,SCT,0.00,WeatherDisplay:10.37,2013-04-22 11:15:00,
2013-04-22 07:16:00,35.6,29.1,30.27,East,80,0.0,0.0,77,0.00,CLR,SCT,0.00,WeatherDisplay:10.37,2013-04-22 11:16:00,
2013-04-22 07:18:00,35.8,29.3,30.27,East,80,0.0,0.0,77,0.00,CLR,SCT,0.00,WeatherDisplay:10.37,2013-04-22 11:18:00,
2013-04-22 07:19:00,35.8,29.3,30.27,East,80,0.0,0.0,77,0.00,CLR,SCT,0.00,WeatherDisplay:10.37,2013-04-22 11:19:00,
2013-04-22 07:21:00,35.9,29.4,30.27,East,80,0.0,0.0,77,0.00,CLR,SCT,0.00,WeatherDisplay:10.37,2013-04-22 11:21:00,
2013-04-22 07:24:00,36.0,29.5,30.27,SSE,148,0.0,0.0,77,0.00,CLR,SCT,0.00,WeatherDisplay:10.37,2013-04-22 11:24:00,
2013-04-22 07:25:00,36.0,29.5,30.27,SSE,148,0.0,0.0,77,0.00,CLR,SCT,0.00,WeatherDisplay:10.37,2013-04-22 11:25:00,
2013-04-22 07:27:00,36.2,29.7,30.27,SSE,148,0.0,0.0,77,0.00,CLR,SCT,0.00,WeatherDisplay:10.37,2013-04-22 11:27:00,
2013-04-22 07:28:00,36.2,29.7,30.27,SSE,148,0.0,0.0,77,0.00,CLR,SCT,0.00,WeatherDisplay:10.37,2013-04-22 11:28:00,
2013-04-22 07:31:00,36.5,30.0,30.27,SSE,148,0.0,0.0,77,0.00,CLR,SCT,0.00,WeatherDisplay:10.37,2013-04-22 11:31:00,
2013-04-22 07:34:00,36.8,30.3,30.28,SSE,148,0.0,0.0,77,0.00,CLR,SCT,0.00,WeatherDisplay:10.37,2013-04-22 11:34:00,
2013-04-22 07:36:00,36.9,30.4,30.28,SSE,148,0.0,0.0,77,0.00,CLR,SCT,0.00,WeatherDisplay:10.37,2013-04-22 11:36:00,
2013-04-22 07:37:00,37.0,30.5,30.28,SSE,148,0.0,0.0,77,0.00,CLR,SCT,0.00,WeatherDisplay:10.37,2013-04-22 11:37:00,
2013-04-22 07:38:00,37.0,30.5,30.28,SSE,148,0.0,0.0,77,0.00,CLR,SCT,0.00,WeatherDisplay:10.37,2013-04-22 11:38:00,
2013-04-22 07:40:00,37.3,31.1,30.28,SSE,148,0.0,0.0,78,0.00,CLR,SCT,0.00,WeatherDisplay:10.37,2013-04-22 11:40:00,
2013-04-22 07:42:00,37.5,31.3,30.28,SSE,148,0.0,0.0,78,0.00,CLR,SCT,0.00,WeatherDisplay:10.37,2013-04-22 11:42:00,
2013-04-22 07:44:00,37.8,31.6,30.28,SSE,148,0.0,0.0,78,0.00,CLR,SCT,0.00,WeatherDisplay:10.37,2013-04-22 11:44:00,
2013-04-22 07:45:00,37.9,31.7,30.28,SSE,148,0.0,0.0,78,0.00,CLR,SCT,0.00,WeatherDisplay:10.37,2013-04-22 11:45:00,
2013-04-22 07:46:00,38.0,31.7,30.28,SSE,148,0.0,0.0,78,0.00,CLR,SCT,0.00,WeatherDisplay:10.37,2013-04-22 11:46:00,
2013-04-22 07:49:00,38.3,32.0,30.28,SSE,148,0.0,0.0,78,0.00,CLR,SCT,0.00,WeatherDisplay:10.37,2013-04-22 11:49:00,
2013-04-22 07:50:00,38.5,32.2,30.28,SSE,148,0.0,0.0,78,0.00,CLR,SCT,0.00,WeatherDisplay:10.37,2013-04-22 11:50:00,
2013-04-22 07:52:00,38.8,32.5,30.27,SSE,148,0.0,0.0,78,0.00,CLR,SCT,0.00,WeatherDisplay:10.37,2013-04-22 11:52:00,
2013-04-22 07:54:00,39.1,32.8,30.27,SSE,148,0.0,0.0,78,0.00,CLR,SCT,0.00,WeatherDisplay:10.37,2013-04-22 11:54:00,
2013-04-22 07:55:00,39.2,32.9,30.27,SSE,148,0.0,0.0,78,0.00,CLR,SCT,0.00,WeatherDisplay:10.37,2013-04-22 11:55:00,
2013-04-22 07:57:00,39.3,33.0,30.27,SSE,148,0.0,0.0,78,0.00,CLR,SCT,0.00,WeatherDisplay:10.37,2013-04-22 11:57:00,
2013-04-22 07:59:00,39.6,33.3,30.27,SSE,148,0.0,0.0,78,0.00,CLR,SCT,0.00,WeatherDisplay:10.37,2013-04-22 11:59:00,
2013-04-22 08:01:00,39.8,33.5,30.27,SSE,150,0.0,0.0,78,0.00,CLR,SCT,0.00,WeatherDisplay:10.37,2013-04-22 12:01:00,
2013-04-22 08:03:00,39.9,33.6,30.27,SSE,150,0.0,0.0,78,0.00,CLR,SCT,0.00,WeatherDisplay:10.37,2013-04-22 12:03:00,
2013-04-22 08:07:00,40.5,34.2,30.27,SSE,159,0.0,0.0,78,0.00,CLR,SCT,0.00,WeatherDisplay:10.37,2013-04-22 12:07:00,
2013-04-22 08:09:00,40.9,34.6,30.27,SSE,159,0.0,0.0,78,0.00,CLR,SCT,0.00,WeatherDisplay:10.37,2013-04-22 12:09:00,
2013-04-22 08:10:00,41.1,34.8,30.27,SSE,159,0.0,0.0,78,0.00,CLR,SCT,0.00,WeatherDisplay:10.37,2013-04-22 12:10:00,
2013-04-22 08:11:00,41.2,34.9,30.27,SSE,159,0.0,0.0,78,0.00,CLR,SCT,0.00,WeatherDisplay:10.37,2013-04-22 12:11:00,
2013-04-22 08:14:00,41.9,35.9,30.27,SSE,159,0.0,0.0,79,0.00,CLR,SCT,0.00,WeatherDisplay:10.37,2013-04-22 12:14:00,
2013-04-22 08:15:00,42.1,36.1,30.27,SSE,159,0.0,0.0,79,0.00,CLR,SCT,0.00,WeatherDisplay:10.37,2013-04-22 12:15:00,
2013-04-22 08:16:00,42.2,36.2,30.27,SSE,159,0.0,0.0,79,0.00,CLR,SCT,0.00,WeatherDisplay:10.37,2013-04-22 12:16:00,
2013-04-22 08:18:00,42.6,36.5,30.27,SSE,159,0.0,0.0,79,0.00,CLR,SCT,0.00,WeatherDisplay:10.37,2013-04-22 12:18:00,
2013-04-22 08:19:00,42.8,36.7,30.27,SSE,159,0.0,0.0,79,0.00,CLR,SCT,0.00,WeatherDisplay:10.37,2013-04-22 12:19:00,
2013-04-22 08:20:00,43.1,37.0,30.27,SSE,159,0.0,0.0,79,0.00,CLR,SCT,0.00,WeatherDisplay:10.37,2013-04-22 12:20:00,
2013-04-22 08:23:00,43.5,37.1,30.27,SSE,159,0.0,0.0,78,0.00,CLR,SCT,0.00,WeatherDisplay:10.37,2013-04-22 12:23:00,
2013-04-22 08:24:00,43.6,37.2,30.27,SSE,159,0.0,0.0,78,0.00,CLR,SCT,0.00,WeatherDisplay:10.37,2013-04-22 12:24:00,
2013-04-22 08:25:00,43.8,37.4,30.27,SSE,159,0.0,0.0,78,0.00,CLR,SCT,0.00,WeatherDisplay:10.37,2013-04-22 12:25:00,
2013-04-22 08:28:00,44.1,37.7,30.27,South,188,0.0,0.0,78,0.00,CLR,SCT,0.00,WeatherDisplay:10.37,2013-04-22 12:28:00,
2013-04-22 08:29:00,44.2,37.8,30.27,South,188,0.0,0.0,78,0.00,CLR,SCT,0.00,WeatherDisplay:10.37,2013-04-22 12:29:00,
2013-04-22 08:30:00,44.5,38.1,30.27,South,188,0.0,0.0,78,0.00,CLR,SCT,0.00,WeatherDisplay:10.37,2013-04-22 12:30:00,
2013-04-22 08:32:00,44.6,38.2,30.27,South,188,0.0,0.0,78,0.00,CLR,SCT,0.00,WeatherDisplay:10.37,2013-04-22 12:32:00,
2013-04-22 08:34:00,44.9,38.5,30.27,South,188,0.0,0.0,78,0.00,CLR,SCT,0.00,WeatherDisplay:10.37,2013-04-22 12:34:00,
2013-04-22 08:37:00,45.4,38.9,30.27,South,188,0.0,0.0,78,0.00,CLR,SCT,0.00,WeatherDisplay:10.37,2013-04-22 12:37:00,
2013-04-22 08:38:00,45.5,39.0,30.27,South,188,0.0,0.0,78,0.00,CLR,SCT,0.00,WeatherDisplay:10.37,2013-04-22 12:38:00,
2013-04-22 08:39:00,45.7,39.2,30.26,South,188,0.0,0.0,78,0.00,CLR,SCT,0.00,WeatherDisplay:10.37,2013-04-22 12:39:00,
2013-04-22 08:40:00,45.8,39.3,30.26,South,188,0.0,0.0,78,0.00,CLR,SCT,0.00,WeatherDisplay:10.37,2013-04-22 12:40:00,
2013-04-22 08:44:00,46.4,39.9,30.26,South,188,0.0,0.0,78,0.00,CLR,SCT,0.00,WeatherDisplay:10.37,2013-04-22 12:44:00,
2013-04-22 08:45:00,46.7,40.2,30.26,South,188,0.0,0.0,78,0.00,CLR,SCT,0.00,WeatherDisplay:10.37,2013-04-22 12:45:00,
2013-04-22 08:46:00,46.8,40.3,30.26,South,188,0.0,0.0,78,0.00,CLR,SCT,0.00,WeatherDisplay:10.37,2013-04-22 12:46:00,
2013-04-22 08:47:00,47.0,40.5,30.26,South,188,0.0,0.0,78,0.00,CLR,SCT,0.00,WeatherDisplay:10.37,2013-04-22 12:47:00,
2013-04-22 08:50:00,47.4,40.9,30.26,SW,223,0.0,0.0,78,0.00,CLR,SCT,0.00,WeatherDisplay:10.37,2013-04-22 12:50:00,
2013-04-22 08:52:00,47.9,41.4,30.26,SW,223,0.0,0.0,78,0.00,CLR,SCT,0.00,WeatherDisplay:10.37,2013-04-22 12:52:00,
2013-04-22 08:53:00,48.0,41.5,30.26,SW,223,0.0,0.0,78,0.00,CLR,SCT,0.00,WeatherDisplay:10.37,2013-04-22 12:53:00,
2013-04-22 08:55:00,48.3,41.4,30.26,SW,223,0.0,0.0,77,0.00,CLR,SCT,0.00,WeatherDisplay:10.37,2013-04-22 12:55:00,
2013-04-22 08:56:00,48.5,41.6,30.26,SW,223,0.0,0.0,77,0.00,CLR,SCT,0.00,WeatherDisplay:10.37,2013-04-22 12:56:00,
2013-04-22 08:58:00,48.9,42.3,30.26,SW,223,0.0,0.0,78,0.00,CLR,SCT,0.00,WeatherDisplay:10.37,2013-04-22 12:58:00,
2013-04-22 09:01:00,49.4,42.5,30.26,SW,223,0.0,0.0,77,0.00,CLR,SCT,0.00,WeatherDisplay:10.37,2013-04-22 13:01:00,
2013-04-22 09:02:00,49.4,42.5,30.26,SW,223,0.0,0.0,77,0.00,CLR,SCT,0.00,WeatherDisplay:10.37,2013-04-22 13:02:00,
2013-04-22 09:03:00,49.6,42.7,30.26,SW,223,0.0,0.0,77,0.00,CLR,SCT,0.00,WeatherDisplay:10.37,2013-04-22 13:03:00,
2013-04-22 09:04:00,49.8,42.9,30.26,SW,223,0.0,0.0,77,0.00,CLR,SCT,0.00,WeatherDisplay:10.37,2013-04-22 13:04:00,
2013-04-22 09:08:00,50.4,43.5,30.26,West,267,1.1,1.1,77,0.00,CLR,SCT,0.00,WeatherDisplay:10.37,2013-04-22 13:08:00,
2013-04-22 09:09:00,50.5,43.2,30.26,West,267,1.1,0.0,76,0.00,CLR,SCT,0.00,WeatherDisplay:10.37,2013-04-22 13:09:00,
2013-04-22 09:10:00,50.7,43.4,30.26,West,267,0.0,0.0,76,0.00,CLR,SCT,0.00,WeatherDisplay:10.37,2013-04-22 13:10:00,
2013-04-22 09:12:00,50.8,43.5,30.26,West,267,0.0,0.0,76,0.00,CLR,SCT,0.00,WeatherDisplay:10.37,2013-04-22 13:12:00,
2013-04-22 09:13:00,50.8,43.5,30.26,West,267,0.0,0.0,76,0.00,CLR,SCT,0.00,WeatherDisplay:10.37,2013-04-22 13:13:00,
2013-04-22 09:14:00,51.0,43.4,30.26,West,268,0.0,0.0,75,0.00,CLR,SCT,0.00,WeatherDisplay:10.37,2013-04-22 13:14:00,
2013-04-22 09:15:00,51.1,43.4,30.26,West,268,0.0,0.0,75,0.00,CLR,SCT,0.00,WeatherDisplay:10.37,2013-04-22 13:15:00,
2013-04-22 09:17:00,51.3,43.3,30.26,West,268,0.0,0.0,74,0.00,CLR,SCT,0.00,WeatherDisplay:10.37,2013-04-22 13:17:00,
2013-04-22 09:20:00,51.6,43.6,30.26,West,268,0.0,0.0,74,0.00,CLR,SCT,0.00,WeatherDisplay:10.37,2013-04-22 13:20:00,
2013-04-22 09:22:00,51.9,43.9,30.26,West,268,0.0,0.0,74,0.00,CLR,SCT,0.00,WeatherDisplay:10.37,2013-04-22 13:22:00,
2013-04-22 09:24:00,52.0,43.6,30.26,West,268,0.0,0.0,73,0.00,CLR,SCT,0.00,WeatherDisplay:10.37,2013-04-22 13:24:00,
2013-04-22 09:25:00,52.2,43.8,30.26,West,268,0.0,0.0,73,0.00,CLR,SCT,0.00,WeatherDisplay:10.37,2013-04-22 13:25:00,
2013-04-22 09:28:00,52.3,43.9,30.26,WNW,284,0.0,0.0,73,0.00,CLR,SCT,0.00,WeatherDisplay:10.37,2013-04-22 13:28:00,
2013-04-22 09:29:00,52.5,44.1,30.26,WNW,284,0.0,0.0,73,0.00,CLR,SCT,0.00,WeatherDisplay:10.37,2013-04-22 13:29:00,
2013-04-22 09:30:00,52.6,43.8,30.26,WNW,284,0.0,0.0,72,0.00,CLR,SCT,0.00,WeatherDisplay:10.37,2013-04-22 13:30:00,
2013-04-22 09:35:00,53.1,44.3,30.26,NW,321,2.3,2.3,72,0.00,CLR,SCT,0.00,WeatherDisplay:10.37,2013-04-22 13:35:00,
2013-04-22 09:37:00,53.2,44.4,30.25,North,5,2.0,2.0,72,0.00,CLR,SCT,0.00,WeatherDisplay:10.37,2013-04-22 13:37:00,
2013-04-22 09:38:00,53.3,44.1,30.25,North,5,3.5,3.5,71,0.00,CLR,SCT,0.00,WeatherDisplay:10.37,2013-04-22 13:38:00,
2013-04-22 09:42:00,53.5,44.0,30.25,North,5,0.0,0.0,70,0.00,CLR,SCT,0.00,WeatherDisplay:10.37,2013-04-22 13:42:00,
2013-04-22 09:43:00,53.5,44.0,30.25,North,5,0.0,0.0,70,0.00,CLR,SCT,0.00,WeatherDisplay:10.37,2013-04-22 13:43:00,
2013-04-22 09:44:00,53.6,44.0,30.25,North,5,1.1,1.1,70,0.00,CLR,SCT,0.00,WeatherDisplay:10.37,2013-04-22 13:44:00,
2013-04-22 09:45:00,53.6,44.0,30.25,North,5,0.0,0.0,70,0.00,CLR,SCT,0.00,WeatherDisplay:10.37,2013-04-22 13:45:00,
2013-04-22 09:46:00,53.6,43.7,30.25,North,5,0.0,0.0,69,0.00,CLR,SCT,0.00,WeatherDisplay:10.37,2013-04-22 13:46:00,
2013-04-22 09:50:00,53.8,43.5,30.25,North,5,2.3,0.0,68,0.00,CLR,SCT,0.00,WeatherDisplay:10.37,2013-04-22 13:50:00,
2013-04-22 09:51:00,53.8,43.5,30.25,North,5,2.3,0.0,68,0.00,CLR,SCT,0.00,WeatherDisplay:10.37,2013-04-22 13:51:00,
2013-04-22 09:52:00,53.8,43.9,30.25,North,5,0.0,0.0,69,0.00,CLR,SCT,0.00,WeatherDisplay:10.37,2013-04-22 13:52:00,
2013-04-22 09:54:00,53.9,44.0,30.25,North,9,2.3,2.3,69,0.00,CLR,SCT,0.00,WeatherDisplay:10.37,2013-04-22 13:54:00,
2013-04-22 09:55:00,53.9,43.6,30.25,North,9,4.0,4.0,68,0.00,CLR,SCT,0.00,WeatherDisplay:10.37,2013-04-22 13:55:00,
2013-04-22 09:57:00,54.1,43.8,30.25,ENE,71,3.5,0.0,68,0.00,CLR,SCT,0.00,WeatherDisplay:10.37,2013-04-22 13:57:00,
2013-04-22 09:59:00,54.1,43.4,30.25,ENE,71,1.1,1.1,67,0.00,CLR,SCT,0.00,WeatherDisplay:10.37,2013-04-22 13:59:00,
2013-04-22 10:00:00,54.1,43.8,30.25,ENE,71,2.3,2.3,68,0.00,CLR,SCT,0.00,WeatherDisplay:10.37,2013-04-22 14:00:00,
2013-04-22 10:02:00,54.2,43.9,30.25,ENE,71,0.0,0.0,68,0.00,CLR,SCT,0.00,WeatherDisplay:10.37,2013-04-22 14:02:00,
2013-04-22 10:05:00,54.4,43.7,30.25,ENE,71,0.0,0.0,67,0.00,CLR,SCT,0.00,WeatherDisplay:10.37,2013-04-22 14:05:00,
2013-04-22 10:06:00,54.4,44.1,30.25,ENE,71,0.0,0.0,68,0.00,CLR,SCT,0.00,WeatherDisplay:10.37,2013-04-22 14:06:00,
2013-04-22 10:07:00,54.5,43.8,30.25,ENE,71,4.6,4.6,67,0.00,CLR,SCT,0.00,WeatherDisplay:10.37,2013-04-22 14:07:00,
2013-04-22 10:11:00,54.7,43.6,30.25,ENE,71,3.5,3.5,66,0.00,CLR,SCT,0.00,WeatherDisplay:10.37,2013-04-22 14:11:00,
2013-04-22 10:12:00,54.7,44.0,30.25,ENE,71,3.5,3.5,67,0.00,CLR,SCT,0.00,WeatherDisplay:10.37,2013-04-22 14:12:00,
2013-04-22 10:13:00,54.8,44.0,30.25,ENE,71,3.5,3.5,67,0.00,CLR,SCT,0.00,WeatherDisplay:10.37,2013-04-22 14:13:00,
2013-04-22 10:15:00,54.8,44.0,30.25,ENE,71,0.0,0.0,67,0.00,CLR,SCT,0.00,WeatherDisplay:10.37,2013-04-22 14:15:00,
2013-04-22 10:18:00,55.1,44.3,30.25,ENE,71,0.0,0.0,67,0.00,CLR,SCT,0.00,WeatherDisplay:10.37,2013-04-22 14:18:00,
2013-04-22 10:19:00,55.1,44.3,30.24,ENE,71,0.0,0.0,67,0.00,CLR,SCT,0.00,WeatherDisplay:10.37,2013-04-22 14:19:00,
2013-04-22 10:20:00,55.3,44.5,30.24,ENE,71,0.0,0.0,67,0.00,CLR,SCT,0.00,WeatherDisplay:10.37,2013-04-22 14:20:00,
2013-04-22 10:24:00,55.4,43.8,30.24,NE,34,3.5,3.5,65,0.00,CLR,SCT,0.00,WeatherDisplay:10.37,2013-04-22 14:24:00,
2013-04-22 10:25:00,55.6,44.0,30.24,NE,34,3.5,3.5,65,0.00,CLR,SCT,0.00,WeatherDisplay:10.37,2013-04-22 14:25:00,
2013-04-22 10:26:00,55.6,44.4,30.24,NE,34,3.5,3.5,66,0.00,CLR,SCT,0.00,WeatherDisplay:10.37,2013-04-22 14:26:00,
2013-04-22 10:27:00,55.7,44.1,30.24,NE,34,3.5,3.5,65,0.00,CLR,SCT,0.00,WeatherDisplay:10.37,2013-04-22 14:27:00,
2013-04-22 10:29:00,55.7,44.1,30.24,NE,34,4.0,4.0,65,0.00,CLR,SCT,0.00,WeatherDisplay:10.37,2013-04-22 14:29:00,
2013-04-22 10:32:00,55.9,44.3,30.24,NE,54,5.8,5.8,65,0.00,CLR,SCT,0.00,WeatherDisplay:10.37,2013-04-22 14:32:00,
2013-04-22 10:33:00,55.9,44.3,30.24,NE,54,4.6,4.6,65,0.00,CLR,SCT,0.00,WeatherDisplay:10.37,2013-04-22 14:33:00,
2013-04-22 10:37:00,56.0,44.4,30.24,NE,37,8.1,8.1,65,0.00,CLR,SCT,0.00,WeatherDisplay:10.37,2013-04-22 14:37:00,
2013-04-22 10:38:00,56.0,44.4,30.24,NE,37,6.9,6.9,65,0.00,CLR,SCT,0.00,WeatherDisplay:10.37,2013-04-22 14:38:00,
2013-04-22 10:39:00,56.0,44.4,30.24,NE,37,4.6,4.6,65,0.00,CLR,SCT,0.00,WeatherDisplay:10.37,2013-04-22 14:39:00,
2013-04-22 10:42:00,56.2,44.2,30.24,NE,37,2.3,2.3,64,0.00,CLR,SCT,0.00,WeatherDisplay:10.37,2013-04-22 14:42:00,
2013-04-22 10:43:00,56.2,44.6,30.24,NE,37,1.1,0.0,65,0.00,CLR,SCT,0.00,WeatherDisplay:10.37,2013-04-22 14:43:00,
2013-04-22 10:44:00,56.2,44.2,30.24,NE,37,0.0,0.0,64,0.00,CLR,SCT,0.00,WeatherDisplay:10.37,2013-04-22 14:44:00,
2013-04-22 10:45:00,56.2,44.2,30.24,NE,37,0.0,0.0,64,0.00,CLR,SCT,0.00,WeatherDisplay:10.37,2013-04-22 14:45:00,
2013-04-22 10:46:00,56.2,44.2,30.24,NE,37,1.1,0.0,64,0.00,CLR,SCT,0.00,WeatherDisplay:10.37,2013-04-22 14:46:00,
2013-04-22 10:49:00,56.2,44.2,30.24,NE,37,9.0,9.0,64,0.00,CLR,SCT,0.00,WeatherDisplay:10.37,2013-04-22 14:49:00,
2013-04-22 10:50:00,56.3,44.3,30.24,NE,53,9.2,9.2,64,0.00,CLR,SCT,0.00,WeatherDisplay:10.37,2013-04-22 14:50:00,
2013-04-22 10:51:00,56.3,44.3,30.24,NE,52,9.2,9.2,64,0.00,CLR,SCT,0.00,WeatherDisplay:10.37,2013-04-22 14:51:00,
2013-04-22 10:52:00,56.5,44.5,30.24,NE,51,8.1,8.1,64,0.00,CLR,SCT,0.00,WeatherDisplay:10.37,2013-04-22 14:52:00,
2013-04-22 10:55:00,56.5,44.5,30.24,NE,51,3.5,3.5,64,0.00,CLR,SCT,0.00,WeatherDisplay:10.37,2013-04-22 14:55:00,
2013-04-22 10:56:00,56.6,44.1,30.24,North,5,5.8,5.8,63,0.00,CLR,SCT,0.00,WeatherDisplay:10.37,2013-04-22 14:56:00,
2013-04-22 10:57:00,56.6,44.6,30.24,North,360,6.9,6.9,64,0.00,CLR,SCT,0.00,WeatherDisplay:10.37,2013-04-22 14:57:00,
2013-04-22 11:00:00,56.7,44.2,30.24,North,5,3.5,3.5,63,0.00,CLR,SCT,0.00,WeatherDisplay:10.37,2013-04-22 15:00:00,
2013-04-22 11:01:00,56.7,44.2,30.24,NNE,17,6.0,6.0,63,0.00,CLR,SCT,0.00,WeatherDisplay:10.37,2013-04-22 15:01:00,
2013-04-22 11:03:00,56.9,44.4,30.24,NE,51,5.8,5.8,63,0.00,CLR,SCT,0.00,WeatherDisplay:10.37,2013-04-22 15:03:00,
2013-04-22 11:07:00,57.0,44.1,30.24,ENE,60,8.0,8.0,62,0.00,CLR,SCT,0.00,WeatherDisplay:10.37,2013-04-22 15:07:00,
2013-04-22 11:08:00,57.0,44.1,30.24,ENE,60,9.2,9.2,62,0.00,CLR,SCT,0.00,WeatherDisplay:10.37,2013-04-22 15:08:00,
2013-04-22 11:09:00,57.0,44.1,30.24,ENE,60,5.8,5.8,62,0.00,CLR,SCT,0.00,WeatherDisplay:10.37,2013-04-22 15:09:00,
2013-04-22 11:10:00,57.0,44.5,30.24,ENE,59,5.0,5.0,63,0.00,CLR,SCT,0.00,WeatherDisplay:10.37,2013-04-22 15:10:00,
2013-04-22 11:12:00,57.0,44.1,30.24,ENE,59,5.8,5.8,62,0.00,CLR,SCT,0.00,WeatherDisplay:10.37,2013-04-22 15:12:00,
2013-04-22 11:13:00,57.0,44.1,30.24,ENE,59,3.5,3.5,62,0.00,CLR,SCT,0.00,WeatherDisplay:10.37,2013-04-22 15:13:00,
2013-04-22 11:17:00,57.3,44.8,30.24,ENE,58,5.8,5.8,63,0.00,CLR,SCT,0.00,WeatherDisplay:10.37,2013-04-22 15:17:00,
2013-04-22 11:18:00,57.3,44.0,30.24,NE,38,5.8,5.8,61,0.00,CLR,SCT,0.00,WeatherDisplay:10.37,2013-04-22 15:18:00,
2013-04-22 11:19:00,57.3,44.4,30.24,NE,38,6.9,6.9,62,0.00,CLR,SCT,0.00,WeatherDisplay:10.37,2013-04-22 15:19:00,
2013-04-22 11:21:00,57.5,44.6,30.24,NE,46,8.0,8.0,62,0.00,CLR,SCT,0.00,WeatherDisplay:10.37,2013-04-22 15:21:00,
2013-04-22 11:23:00,57.5,44.6,30.24,NE,36,6.9,6.9,62,0.00,CLR,SCT,0.00,WeatherDisplay:10.37,2013-04-22 15:23:00,
2013-04-22 11:24:00,57.5,44.6,30.24,NNE,14,10.4,10.4,62,0.00,CLR,SCT,0.00,WeatherDisplay:10.37,2013-04-22 15:24:00,
2013-04-22 11:25:00,57.5,44.1,30.23,NNW,348,8.1,8.1,61,0.00,CLR,SCT,0.00,WeatherDisplay:10.37,2013-04-22 15:25:00,
2013-04-22 11:26:00,57.5,44.1,30.24,NNE,14,11.5,11.5,61,0.00,CLR,SCT,0.00,WeatherDisplay:10.37,2013-04-22 15:26:00,
2013-04-22 11:29:00,57.6,43.8,30.23,NNE,19,6.9,6.9,60,0.00,CLR,SCT,0.00,WeatherDisplay:10.37,2013-04-22 15:29:00,
2013-04-22 11:31:00,57.6,43.8,30.23,NNE,19,5.0,5.0,60,0.00,CLR,SCT,0.00,WeatherDisplay:10.37,2013-04-22 15:31:00,
2013-04-22 11:33:00,57.6,43.8,30.23,NNE,32,10.4,10.4,60,0.00,CLR,SCT,0.00,WeatherDisplay:10.37,2013-04-22 15:33:00,
2013-04-22 11:36:00,58.0,44.6,30.23,NNE,32,4.0,4.0,61,0.00,CLR,SCT,0.00,WeatherDisplay:10.37,2013-04-22 15:36:00,
2013-04-22 11:38:00,58.0,43.7,30.23,North,360,4.6,4.6,59,0.00,CLR,SCT,0.00,WeatherDisplay:10.37,2013-04-22 15:38:00,
2013-04-22 11:41:00,58.1,43.8,30.23,North,9,9.0,9.0,59,0.00,CLR,SCT,0.00,WeatherDisplay:10.37,2013-04-22 15:41:00,
2013-04-22 11:42:00,58.1,44.3,30.23,North,10,10.4,10.4,60,0.00,CLR,SCT,0.00,WeatherDisplay:10.37,2013-04-22 15:42:00,
2013-04-22 11:43:00,58.1,44.3,30.23,NE,46,6.0,6.0,60,0.00,CLR,SCT,0.00,WeatherDisplay:10.37,2013-04-22 15:43:00,
2013-04-22 11:45:00,58.3,44.0,30.23,NNE,22,10.4,10.4,59,0.00,CLR,SCT,0.00,WeatherDisplay:10.37,2013-04-22 15:45:00,
2013-04-22 11:48:00,58.3,44.5,30.23,NE,43,6.9,6.9,60,0.00,CLR,SCT,0.00,WeatherDisplay:10.37,2013-04-22 15:48:00,
2013-04-22 11:49:00,58.3,44.0,30.23,NE,43,9.0,9.0,59,0.00,CLR,SCT,0.00,WeatherDisplay:10.37,2013-04-22 15:49:00,
2013-04-22 11:50:00,58.3,44.0,30.23,NE,37,10.4,10.4,59,0.00,CLR,SCT,0.00,WeatherDisplay:10.37,2013-04-22 15:50:00,
2013-04-22 11:52:00,58.3,43.6,30.23,NE,36,6.9,6.9,58,0.00,CLR,SCT,0.00,WeatherDisplay:10.37,2013-04-22 15:52:00,
2013-04-22 11:53:00,58.4,44.6,30.23,NE,55,5.8,5.8,60,0.00,CLR,SCT,0.00,WeatherDisplay:10.37,2013-04-22 15:53:00,
2013-04-22 11:54:00,58.4,44.6,30.23,NE,50,10.4,10.4,60,0.00,CLR,SCT,0.00,WeatherDisplay:10.37,2013-04-22 15:54:00,
2013-04-22 11:55:00,58.4,44.6,30.23,NE,49,13.8,13.8,60,0.00,CLR,SCT,0.00,WeatherDisplay:10.37,2013-04-22 15:55:00,
2013-04-22 11:57:00,58.6,44.3,30.23,NE,43,10.4,10.4,59,0.00,CLR,SCT,0.00,WeatherDisplay:10.37,2013-04-22 15:57:00,
2013-04-22 11:58:00,58.6,43.9,30.23,NNE,21,7.0,7.0,58,0.00,CLR,SCT,0.00,WeatherDisplay:10.37,2013-04-22 15:58:00,
2013-04-22 12:01:00,58.7,44.0,30.23,East,80,10.4,10.4,58,0.00,CLR,SCT,0.00,WeatherDisplay:10.37,2013-04-22 16:01:00,
2013-04-22 12:03:00,58.7,44.0,30.22,East,80,3.5,3.5,58,0.00,CLR,SCT,0.00,WeatherDisplay:10.37,2013-04-22 16:03:00,
2013-04-22 12:05:00,58.7,44.4,30.22,NE,56,6.9,6.9,59,0.00,CLR,SCT,0.00,WeatherDisplay:10.37,2013-04-22 16:05:00,
2013-04-22 12:07:00,58.7,44.4,30.22,ENE,76,9.2,9.2,59,0.00,CLR,SCT,0.00,WeatherDisplay:10.37,2013-04-22 16:07:00,
2013-04-22 12:08:00,58.7,44.0,30.22,ENE,76,8.1,8.1,58,0.00,CLR,SCT,0.00,WeatherDisplay:10.37,2013-04-22 16:08:00,
2013-04-22 12:09:00,58.9,44.1,30.23,NE,40,6.9,6.9,58,0.00,CLR,SCT,0.00,WeatherDisplay:10.37,2013-04-22 16:09:00,
2013-04-22 12:10:00,58.9,44.1,30.22,NE,42,6.9,6.9,58,0.00,CLR,SCT,0.00,WeatherDisplay:10.37,2013-04-22 16:10:00,
2013-04-22 12:11:00,58.9,44.1,30.22,NE,42,6.9,6.9,58,0.00,CLR,SCT,0.00,WeatherDisplay:10.37,2013-04-22 16:11:00,
2013-04-22 12:13:00,58.9,44.1,30.22,NE,42,6.0,6.0,58,0.00,CLR,SCT,0.00,WeatherDisplay:10.37,2013-04-22 16:13:00,
2013-04-22 12:16:00,58.9,43.7,30.22,NNE,31,11.5,11.5,57,0.00,CLR,SCT,0.00,WeatherDisplay:10.37,2013-04-22 16:16:00,
2013-04-22 12:17:00,58.9,44.1,30.22,NNE,30,10.4,10.4,58,0.00,CLR,SCT,0.00,WeatherDisplay:10.37,2013-04-22 16:17:00,
2013-04-22 12:19:00,58.9,44.1,30.22,NNE,30,10.4,10.4,58,0.00,CLR,SCT,0.00,WeatherDisplay:10.37,2013-04-22 16:19:00,
2013-04-22 12:20:00,58.9,44.1,30.22,NE,55,8.1,8.1,58,0.00,CLR,SCT,0.00,WeatherDisplay:10.37,2013-04-22 16:20:00,
2013-04-22 12:21:00,59.0,44.2,30.22,ENE,63,11.5,11.5,58,0.00,CLR,SCT,0.00,WeatherDisplay:10.37,2013-04-22 16:21:00,
2013-04-22 12:25:00,59.2,44.9,30.22,ENE,76,5.0,5.0,59,0.00,CLR,SCT,0.00,WeatherDisplay:10.37,2013-04-22 16:25:00,
2013-04-22 12:26:00,59.3,45.0,30.22,ENE,74,6.0,6.0,59,0.00,CLR,SCT,0.00,WeatherDisplay:10.37,2013-04-22 16:26:00,
2013-04-22 12:31:00,59.5,44.7,30.22,ENE,78,10.4,10.4,58,0.00,CLR,SCT,0.00,WeatherDisplay:10.37,2013-04-22 16:31:00,
2013-04-22 12:33:00,59.5,44.7,30.21,ENE,78,4.6,4.6,58,0.00,CLR,SCT,0.00,WeatherDisplay:10.37,2013-04-22 16:33:00,
2013-04-22 12:34:00,59.6,45.2,30.21,ENE,60,6.0,6.0,59,0.00,CLR,SCT,0.00,WeatherDisplay:10.37,2013-04-22 16:34:00,
2013-04-22 12:37:00,59.8,45.0,30.21,ENE,59,5.8,5.8,58,0.00,CLR,SCT,0.00,WeatherDisplay:10.37,2013-04-22 16:37:00,
2013-04-22 12:38:00,59.8,45.0,30.21,NE,43,9.2,9.2,58,0.00,CLR,SCT,0.00,WeatherDisplay:10.37,2013-04-22 16:38:00,
2013-04-22 12:39:00,59.8,45.4,30.21,ENE,57,6.9,6.9,59,0.00,CLR,SCT,0.00,WeatherDisplay:10.37,2013-04-22 16:39:00,
2013-04-22 12:40:00,59.9,45.1,30.21,NNE,20,8.0,8.0,58,0.00,CLR,SCT,0.00,WeatherDisplay:10.37,2013-04-22 16:40:00,
2013-04-22 12:43:00,60.1,45.3,30.21,NNE,20,4.6,4.6,58,0.00,CLR,SCT,0.00,WeatherDisplay:10.37,2013-04-22 16:43:00,
2013-04-22 12:45:00,60.1,45.3,30.21,NNE,20,9.2,9.2,58,0.00,CLR,SCT,0.00,WeatherDisplay:10.37,2013-04-22 16:45:00,
2013-04-22 12:46:00,60.1,44.8,30.20,NNE,20,6.9,6.9,57,0.00,CLR,SCT,0.00,WeatherDisplay:10.37,2013-04-22 16:46:00,
2013-04-22 12:48:00,60.1,45.3,30.20,NE,34,4.6,4.6,58,0.00,CLR,SCT,0.00,WeatherDisplay:10.37,2013-04-22 16:48:00,
2013-04-22 12:50:00,60.2,45.4,30.20,NNE,33,9.2,9.2,58,0.00,CLR,SCT,0.00,WeatherDisplay:10.37,2013-04-22 16:50:00,
2013-04-22 12:51:00,60.2,45.4,30.20,NNE,32,9.2,9.2,58,0.00,CLR,SCT,0.00,WeatherDisplay:10.37,2013-04-22 16:51:00,
2013-04-22 12:52:00,60.4,45.5,30.20,NE,38,9.2,9.2,58,0.00,CLR,SCT,0.00,WeatherDisplay:10.37,2013-04-22 16:52:00,
2013-04-22 12:53:00,60.4,45.1,30.20,NNE,24,8.1,8.1,57,0.00,CLR,SCT,0.00,WeatherDisplay:10.37,2013-04-22 16:53:00,
2013-04-22 12:57:00,60.4,44.6,30.20,NE,44,11.5,11.5,56,0.00,CLR,SCT,0.00,WeatherDisplay:10.37,2013-04-22 16:57:00,
2013-04-22 12:58:00,60.4,44.6,30.20,NE,44,9.2,9.2,56,0.00,CLR,SCT,0.00,WeatherDisplay:10.37,2013-04-22 16:58:00,
2013-04-22 13:02:00,60.4,45.1,30.20,NNE,16,9.0,9.0,57,0.00,CLR,SCT,0.00,WeatherDisplay:10.37,2013-04-22 17:02:00,
2013-04-22 13:04:00,60.4,45.5,30.20,NNE,17,3.5,3.5,58,0.00,CLR,SCT,0.00,WeatherDisplay:10.37,2013-04-22 17:04:00,
2013-04-22 13:05:00,60.4,45.1,30.20,NNE,17,4.0,4.0,57,0.00,CLR,SCT,0.00,WeatherDisplay:10.37,2013-04-22 17:05:00,
2013-04-22 13:07:00,60.5,45.6,30.20,NNE,14,9.2,9.2,58,0.00,CLR,SCT,0.00,WeatherDisplay:10.37,2013-04-22 17:07:00,
2013-04-22 13:10:00,60.7,45.4,30.20,NE,38,9.2,9.2,57,0.00,CLR,SCT,0.00,WeatherDisplay:10.37,2013-04-22 17:10:00,
2013-04-22 13:11:00,60.7,45.4,30.19,NE,35,9.2,9.2,57,0.00,CLR,SCT,0.00,WeatherDisplay:10.37,2013-04-22 17:11:00,
2013-04-22 13:12:00,60.7,45.4,30.19,NNE,13,10.4,10.4,57,0.00,CLR,SCT,0.00,WeatherDisplay:10.37,2013-04-22 17:12:00,
2013-04-22 13:14:00,60.9,46.0,30.19,North,9,9.2,9.2,58,0.00,CLR,SCT,0.00,WeatherDisplay:10.37,2013-04-22 17:14:00,
2013-04-22 13:15:00,60.9,45.6,30.19,North,10,10.4,10.4,57,0.00,CLR,SCT,0.00,WeatherDisplay:10.37,2013-04-22 17:15:00,
2013-04-22 13:17:00,61.0,46.1,30.19,ENE,57,10.4,10.4,58,0.00,CLR,SCT,0.00,WeatherDisplay:10.37,2013-04-22 17:17:00,
2013-04-22 13:19:00,61.2,45.8,30.19,ENE,59,6.9,6.9,57,0.00,CLR,SCT,0.00,WeatherDisplay:10.37,2013-04-22 17:19:00,
2013-04-22 13:22:00,61.3,45.9,30.19,NE,44,6.9,6.9,57,0.00,CLR,SCT,0.00,WeatherDisplay:10.37,2013-04-22 17:22:00,
2013-04-22 13:23:00,61.5,45.7,30.18,NE,44,4.6,4.6,56,0.00,CLR,SCT,0.00,WeatherDisplay:10.37,2013-04-22 17:23:00,
2013-04-22 13:25:00,61.5,45.7,30.18,NE,44,5.8,5.8,56,0.00,CLR,SCT,0.00,WeatherDisplay:10.37,2013-04-22 17:25:00,
2013-04-22 13:26:00,61.5,45.7,30.18,NE,44,4.6,4.6,56,0.00,CLR,SCT,0.00,WeatherDisplay:10.37,2013-04-22 17:26:00,
2013-04-22 13:28:00,61.5,46.1,30.18,NE,36,9.2,9.2,57,0.00,CLR,SCT,0.00,WeatherDisplay:10.37,2013-04-22 17:28:00,
2013-04-22 13:31:00,61.5,45.7,30.18,NE,36,5.8,5.8,56,0.00,CLR,SCT,0.00,WeatherDisplay:10.37,2013-04-22 17:31:00,
2013-04-22 13:33:00,61.5,45.7,30.18,NE,50,6.9,6.9,56,0.00,CLR,SCT,0.00,WeatherDisplay:10.37,2013-04-22 17:33:00,
2013-04-22 13:35:00,61.6,45.7,30.18,NE,48,8.1,8.1,56,0.00,CLR,SCT,0.00,WeatherDisplay:10.37,2013-04-22 17:35:00,
2013-04-22 13:37:00,61.6,45.3,30.18,NE,48,3.5,3.5,55,0.00,CLR,SCT,0.00,WeatherDisplay:10.37,2013-04-22 17:37:00,
2013-04-22 13:40:00,61.8,45.9,30.18,NE,52,6.0,6.0,56,0.00,CLR,SCT,0.00,WeatherDisplay:10.37,2013-04-22 17:40:00,
2013-04-22 13:41:00,61.8,45.9,30.18,ENE,69,7.0,7.0,56,0.00,CLR,SCT,0.00,WeatherDisplay:10.37,2013-04-22 17:41:00,
2013-04-22 13:43:00,61.8,45.0,30.17,ENE,64,10.4,10.4,54,0.00,CLR,SCT,0.00,WeatherDisplay:10.37,2013-04-22 17:43:00,
2013-04-22 13:46:00,61.8,45.0,30.17,ENE,67,4.6,4.6,54,0.00,CLR,SCT,0.00,WeatherDisplay:10.37,2013-04-22 17:46:00,
2013-04-22 13:47:00,61.8,45.0,30.17,ENE,67,4.6,4.6,54,0.00,CLR,SCT,0.00,WeatherDisplay:10.37,2013-04-22 17:47:00,
2013-04-22 13:49:00,61.8,45.5,30.17,NE,46,10.4,10.4,55,0.00,CLR,SCT,0.00,WeatherDisplay:10.37,2013-04-22 17:49:00,
2013-04-22 13:51:00,62.0,46.1,30.17,NNE,30,8.1,8.1,56,0.00,CLR,SCT,0.00,WeatherDisplay:10.37,2013-04-22 17:51:00,
2013-04-22 13:54:00,62.1,45.2,30.17,ENE,70,5.8,5.8,54,0.00,CLR,SCT,0.00,WeatherDisplay:10.37,2013-04-22 17:54:00,
2013-04-22 13:55:00,62.1,45.2,30.17,NNE,13,12.0,12.0,54,0.00,CLR,SCT,0.00,WeatherDisplay:10.37,2013-04-22 17:55:00,
2013-04-22 13:58:00,62.1,44.8,30.17,NNE,16,10.4,10.4,53,0.00,CLR,SCT,0.00,WeatherDisplay:10.37,2013-04-22 17:58:00,
2013-04-22 14:00:00,62.1,44.8,30.17,North,9,11.5,11.5,53,0.00,CLR,SCT,0.00,WeatherDisplay:10.37,2013-04-22 18:00:00,
2013-04-22 14:02:00,62.1,44.8,30.17,NNE,20,10.4,10.4,53,0.00,CLR,SCT,0.00,WeatherDisplay:10.37,2013-04-22 18:02:00,
2013-04-22 14:03:00,62.1,44.8,30.17,NNE,19,9.0,9.0,53,0.00,CLR,SCT,0.00,WeatherDisplay:10.37,2013-04-22 18:03:00,
2013-04-22 14:04:00,62.1,45.2,30.17,NE,36,9.2,9.2,54,0.00,CLR,SCT,0.00,WeatherDisplay:10.37,2013-04-22 18:04:00,
2013-04-22 14:05:00,62.3,45.4,30.17,NE,46,11.5,11.5,54,0.00,CLR,SCT,0.00,WeatherDisplay:10.37,2013-04-22 18:05:00,
2013-04-22 14:06:00,62.3,44.9,30.17,NE,46,10.4,10.4,53,0.00,CLR,SCT,0.00,WeatherDisplay:10.37,2013-04-22 18:06:00,
2013-04-22 14:07:00,62.3,45.4,30.17,NNE,19,9.2,9.2,54,0.00,CLR,SCT,0.00,WeatherDisplay:10.37,2013-04-22 18:07:00,
2013-04-22 14:10:00,62.3,44.4,30.17,East,80,12.7,12.7,52,0.00,CLR,SCT,0.00,WeatherDisplay:10.37,2013-04-22 18:10:00,
2013-04-22 14:12:00,62.4,45.5,30.17,NE,49,7.0,7.0,54,0.00,CLR,SCT,0.00,WeatherDisplay:10.37,2013-04-22 18:12:00,
2013-04-22 14:13:00,62.4,45.0,30.17,NE,49,9.2,9.2,53,0.00,CLR,SCT,0.00,WeatherDisplay:10.37,2013-04-22 18:13:00,
2013-04-22 14:15:00,62.4,44.5,30.16,NNE,19,12.0,12.0,52,0.00,CLR,SCT,0.00,WeatherDisplay:10.37,2013-04-22 18:15:00,
2013-04-22 14:18:00,62.6,44.7,30.16,ENE,68,11.5,11.5,52,0.00,CLR,SCT,0.00,WeatherDisplay:10.37,2013-04-22 18:18:00,
2013-04-22 14:19:00,62.6,44.7,30.16,ENE,71,12.7,12.7,52,0.00,CLR,SCT,0.00,WeatherDisplay:10.37,2013-04-22 18:19:00,
2013-04-22 14:20:00,62.6,44.7,30.16,ENE,70,12.7,12.7,52,0.00,CLR,SCT,0.00,WeatherDisplay:10.37,2013-04-22 18:20:00,
2013-04-22 14:22:00,62.7,45.3,30.16,NE,40,6.9,6.9,53,0.00,CLR,SCT,0.00,WeatherDisplay:10.37,2013-04-22 18:22:00,
2013-04-22 14:23:00,62.7,45.3,30.15,ENE,69,9.2,9.2,53,0.00,CLR,SCT,0.00,WeatherDisplay:10.37,2013-04-22 18:23:00,
2013-04-22 14:26:00,62.7,44.8,30.15,NNE,17,11.0,11.0,52,0.00,CLR,SCT,0.00,WeatherDisplay:10.37,2013-04-22 18:26:00,
2013-04-22 14:27:00,62.9,45.0,30.15,NE,34,11.5,11.5,52,0.00,CLR,SCT,0.00,WeatherDisplay:10.37,2013-04-22 18:27:00,
2013-04-22 14:28:00,62.9,44.5,30.15,North,5,13.0,13.0,51,0.00,CLR,SCT,0.00,WeatherDisplay:10.37,2013-04-22 18:28:00,
2013-04-22 14:31:00,62.9,44.5,30.15,NNE,17,13.0,13.0,51,0.00,CLR,SCT,0.00,WeatherDisplay:10.37,2013-04-22 18:31:00,
2013-04-22 14:32:00,62.9,44.5,30.15,NE,40,12.7,12.7,51,0.00,CLR,SCT,0.00,WeatherDisplay:10.37,2013-04-22 18:32:00,
2013-04-22 14:33:00,62.9,44.0,30.15,North,5,11.5,11.5,50,0.00,CLR,SCT,0.00,WeatherDisplay:10.37,2013-04-22 18:33:00,
2013-04-22 14:36:00,62.9,44.0,30.15,NNE,15,10.4,10.4,50,0.00,CLR,SCT,0.00,WeatherDisplay:10.37,2013-04-22 18:36:00,
2013-04-22 14:38:00,62.9,44.0,30.15,NNE,19,13.8,13.8,50,0.00,CLR,SCT,0.00,WeatherDisplay:10.37,2013-04-22 18:38:00,
2013-04-22 14:40:00,62.9,44.0,30.15,North,9,9.2,9.2,50,0.00,CLR,SCT,0.00,WeatherDisplay:10.37,2013-04-22 18:40:00,
2013-04-22 14:41:00,62.9,44.0,30.15,North,11,11.5,11.5,50,0.00,CLR,SCT,0.00,WeatherDisplay:10.37,2013-04-22 18:41:00,
2013-04-22 14:42:00,62.9,44.5,30.15,NNE,16,11.5,11.5,51,0.00,CLR,SCT,0.00,WeatherDisplay:10.37,2013-04-22 18:42:00,
2013-04-22 14:45:00,63.1,44.2,30.15,NE,54,9.2,9.2,50,0.00,CLR,SCT,0.00,WeatherDisplay:10.37,2013-04-22 18:45:00,
2013-04-22 14:47:00,63.1,44.2,30.15,NNE,23,12.7,12.7,50,0.00,CLR,SCT,0.00,WeatherDisplay:10.37,2013-04-22 18:47:00,
2013-04-22 14:48:00,63.2,44.8,30.15,NE,34,12.0,12.0,51,0.00,CLR,SCT,0.00,WeatherDisplay:10.37,2013-04-22 18:48:00,
2013-04-22 14:49:00,63.2,44.2,30.15,NE,38,11.5,11.5,50,0.00,CLR,SCT,0.00,WeatherDisplay:10.37,2013-04-22 18:49:00,
2013-04-22 14:53:00,63.4,44.4,30.15,NE,34,12.7,12.7,50,0.00,CLR,SCT,0.00,WeatherDisplay:10.37,2013-04-22 18:53:00,
2013-04-22 14:54:00,63.4,44.4,30.15,North,11,12.7,12.7,50,0.00,CLR,SCT,0.00,WeatherDisplay:10.37,2013-04-22 18:54:00,
2013-04-22 14:56:00,63.4,43.9,30.15,NE,40,11.5,11.5,49,0.00,CLR,SCT,0.00,WeatherDisplay:10.37,2013-04-22 18:56:00,
2013-04-22 14:59:00,63.4,43.4,30.14,NE,49,13.8,13.8,48,0.00,CLR,SCT,0.00,WeatherDisplay:10.37,2013-04-22 18:59:00,
2013-04-22 15:00:00,63.2,43.2,30.14,NE,34,12.7,12.7,48,0.00,CLR,SCT,0.00,WeatherDisplay:10.37,2013-04-22 19:00:00,
2013-04-22 15:02:00,63.2,43.7,30.14,NE,36,11.5,11.5,49,0.00,CLR,SCT,0.00,WeatherDisplay:10.37,2013-04-22 19:02:00,
2013-04-22 15:04:00,63.4,43.4,30.14,NNE,31,10.4,10.4,48,0.00,CLR,SCT,0.00,WeatherDisplay:10.37,2013-04-22 19:04:00,
2013-04-22 15:06:00,63.4,43.9,30.14,NE,42,11.5,11.5,49,0.00,CLR,SCT,0.00,WeatherDisplay:10.37,2013-04-22 19:06:00,
2013-04-22 15:08:00,63.5,43.4,30.14,ENE,58,11.5,11.5,48,0.00,CLR,SCT,0.00,WeatherDisplay:10.37,2013-04-22 19:08:00,
2013-04-22 15:09:00,63.5,43.4,30.14,NE,48,7.0,7.0,48,0.00,CLR,SCT,0.00,WeatherDisplay:10.37,2013-04-22 19:09:00,
2013-04-22 15:10:00,63.5,43.4,30.14,NNE,33,11.5,11.5,48,0.00,CLR,SCT,0.00,WeatherDisplay:10.37,2013-04-22 19:10:00,
2013-04-22 15:12:00,63.5,42.9,30.14,NE,44,11.5,11.5,47,0.00,CLR,SCT,0.00,WeatherDisplay:10.37,2013-04-22 19:12:00,
2013-04-22 15:14:00,63.5,42.9,30.14,NE,36,12.7,12.7,47,0.00,CLR,SCT,0.00,WeatherDisplay:10.37,2013-04-22 19:14:00,
2013-04-22 15:15:00,63.5,42.9,30.14,NE,45,11.5,11.5,47,0.00,CLR,SCT,0.00,WeatherDisplay:10.37,2013-04-22 19:15:00,
2013-04-22 15:16:00,63.7,43.6,30.14,NE,45,5.8,5.8,48,0.00,CLR,SCT,0.00,WeatherDisplay:10.37,2013-04-22 19:16:00,
2013-04-22 15:19:00,63.9,44.4,30.14,NE,51,11.5,11.5,49,0.00,CLR,SCT,0.00,WeatherDisplay:10.37,2013-04-22 19:19:00,
2013-04-22 15:21:00,63.9,44.4,30.14,NNE,23,10.0,10.0,49,0.00,CLR,SCT,0.00,WeatherDisplay:10.37,2013-04-22 19:21:00,
2013-04-22 15:22:00,64.0,43.4,30.14,NE,51,12.0,12.0,47,0.00,CLR,SCT,0.00,WeatherDisplay:10.37,2013-04-22 19:22:00,
2013-04-22 15:23:00,64.0,43.4,30.14,NE,44,12.7,12.7,47,0.00,CLR,SCT,0.00,WeatherDisplay:10.37,2013-04-22 19:23:00,
2013-04-22 15:27:00,64.2,44.1,30.14,NE,36,11.5,11.5,48,0.00,CLR,SCT,0.00,WeatherDisplay:10.37,2013-04-22 19:27:00,
2013-04-22 15:28:00,64.2,44.1,30.14,NE,36,9.0,9.0,48,0.00,CLR,SCT,0.00,WeatherDisplay:10.37,2013-04-22 19:28:00,
2013-04-22 15:31:00,64.3,44.2,30.14,NE,56,10.4,10.4,48,0.00,CLR,SCT,0.00,WeatherDisplay:10.37,2013-04-22 19:31:00,
2013-04-22 15:33:00,64.3,43.6,30.13,NE,46,11.5,11.5,47,0.00,CLR,SCT,0.00,WeatherDisplay:10.37,2013-04-22 19:33:00,
2013-04-22 15:34:00,64.3,43.6,30.13,NE,42,9.2,9.2,47,0.00,CLR,SCT,0.00,WeatherDisplay:10.37,2013-04-22 19:34:00,
2013-04-22 15:36:00,64.3,43.6,30.13,ENE,69,6.9,6.9,47,0.00,CLR,SCT,0.00,WeatherDisplay:10.37,2013-04-22 19:36:00,
2013-04-22 15:37:00,64.5,44.4,30.13,ENE,69,3.5,4.0,48,0.00,CLR,SCT,0.00,WeatherDisplay:10.37,2013-04-22 19:37:00,
2013-04-22 15:40:00,64.7,44.5,30.12,ENE,74,10.4,10.4,48,0.00,CLR,SCT,0.00,WeatherDisplay:10.37,2013-04-22 19:40:00,
2013-04-22 15:41:00,64.7,43.4,30.12,ENE,74,9.2,9.2,46,0.00,CLR,SCT,0.00,WeatherDisplay:10.37,2013-04-22 19:41:00,
2013-04-22 15:43:00,64.7,44.0,30.12,NE,55,12.0,12.0,47,0.00,CLR,SCT,0.00,WeatherDisplay:10.37,2013-04-22 19:43:00,
2013-04-22 15:45:00,64.7,44.0,30.12,NE,53,5.8,5.8,47,0.00,CLR,SCT,0.00,WeatherDisplay:10.37,2013-04-22 19:45:00,
2013-04-22 15:47:00,64.7,44.0,30.12,NE,49,9.2,9.2,47,0.00,CLR,SCT,0.00,WeatherDisplay:10.37,2013-04-22 19:47:00,
2013-04-22 15:48:00,64.7,44.0,30.12,NE,49,5.8,5.8,47,0.00,CLR,SCT,0.00,WeatherDisplay:10.37,2013-04-22 19:48:00,
2013-04-22 15:50:00,64.8,43.5,30.12,ENE,77,10.0,10.0,46,0.00,CLR,SCT,0.00,WeatherDisplay:10.37,2013-04-22 19:50:00,
2013-04-22 15:51:00,64.8,43.5,30.12,ENE,58,10.4,10.4,46,0.00,CLR,SCT,0.00,WeatherDisplay:10.37,2013-04-22 19:51:00,
2013-04-22 15:52:00,64.8,43.5,30.12,ENE,60,10.4,10.4,46,0.00,CLR,SCT,0.00,WeatherDisplay:10.37,2013-04-22 19:52:00,
2013-04-22 15:53:00,64.8,44.1,30.12,ENE,60,7.0,7.0,47,0.00,CLR,SCT,0.00,WeatherDisplay:10.37,2013-04-22 19:53:00,
2013-04-22 15:54:00,64.8,43.5,30.12,ENE,60,11.5,11.5,46,0.00,CLR,SCT,0.00,WeatherDisplay:10.37,2013-04-22 19:54:00,
2013-04-22 15:56:00,65.0,44.3,30.12,NE,47,6.9,6.9,47,0.00,CLR,SCT,0.00,WeatherDisplay:10.37,2013-04-22 19:56:00,
2013-04-22 15:58:00,65.0,43.7,30.12,NE,45,9.2,9.2,46,0.00,CLR,SCT,0.00,WeatherDisplay:10.37,2013-04-22 19:58:00,
2013-04-22 15:59:00,65.0,43.7,30.12,NE,44,5.8,5.8,46,0.00,CLR,SCT,0.00,WeatherDisplay:10.37,2013-04-22 19:59:00,
2013-04-22 16:01:00,65.0,43.7,30.12,ENE,71,4.0,4.0,46,0.00,CLR,SCT,0.00,WeatherDisplay:10.37,2013-04-22 20:01:00,
2013-04-22 16:03:00,65.0,43.1,30.12,ENE,67,11.5,11.5,45,0.00,CLR,SCT,0.00,WeatherDisplay:10.37,2013-04-22 20:03:00,
2013-04-22 16:05:00,65.0,43.7,30.11,ENE,61,10.4,10.4,46,0.00,CLR,SCT,0.00,WeatherDisplay:10.37,2013-04-22 20:05:00,
2013-04-22 16:06:00,65.0,43.7,30.11,ENE,61,9.2,9.2,46,0.00,CLR,SCT,0.00,WeatherDisplay:10.37,2013-04-22 20:06:00,
2013-04-22 16:08:00,65.0,43.1,30.11,ENE,60,9.2,9.2,45,0.00,CLR,SCT,0.00,WeatherDisplay:10.37,2013-04-22 20:08:00,
2013-04-22 16:10:00,65.0,43.1,30.11,ENE,60,4.6,4.6,45,0.00,CLR,SCT,0.00,WeatherDisplay:10.37,2013-04-22 20:10:00,
2013-04-22 16:12:00,65.0,43.1,30.11,ENE,60,2.0,2.0,45,0.00,CLR,SCT,0.00,WeatherDisplay:10.37,2013-04-22 20:12:00,
2013-04-22 16:13:00,65.0,43.1,30.11,ENE,60,2.3,2.3,45,0.00,CLR,SCT,0.00,WeatherDisplay:10.37,2013-04-22 20:13:00,
2013-04-22 16:14:00,65.0,43.1,30.11,ENE,59,5.0,5.0,45,0.00,CLR,SCT,0.00,WeatherDisplay:10.37,2013-04-22 20:14:00,
2013-04-22 16:15:00,65.0,43.7,30.11,NE,38,8.1,8.1,46,0.00,CLR,SCT,0.00,WeatherDisplay:10.37,2013-04-22 20:15:00,
2013-04-22 16:17:00,65.0,43.1,30.11,NE,39,11.5,11.5,45,0.00,CLR,SCT,0.00,WeatherDisplay:10.37,2013-04-22 20:17:00,
2013-04-22 16:22:00,65.2,42.7,30.10,North,360,9.2,9.2,44,0.00,CLR,SCT,0.00,WeatherDisplay:10.37,2013-04-22 20:22:00,
2013-04-22 16:23:00,65.2,42.1,30.10,NNE,16,10.4,10.4,43,0.00,CLR,SCT,0.00,WeatherDisplay:10.37,2013-04-22 20:23:00,
2013-04-22 16:24:00,65.2,42.7,30.10,NE,56,10.4,10.4,44,0.00,CLR,SCT,0.00,WeatherDisplay:10.37,2013-04-22 20:24:00,
2013-04-22 16:27:00,65.2,43.3,30.10,ENE,57,8.0,8.0,45,0.00,CLR,SCT,0.00,WeatherDisplay:10.37,2013-04-22 20:27:00,
2013-04-22 16:30:00,65.2,42.7,30.10,ENE,58,5.0,5.0,44,0.00,CLR,SCT,0.00,WeatherDisplay:10.37,2013-04-22 20:30:00,
2013-04-22 16:32:00,65.3,42.8,30.10,ENE,58,4.6,4.6,44,0.00,CLR,SCT,0.00,WeatherDisplay:10.37,2013-04-22 20:32:00,
2013-04-22 16:33:00,65.3,42.8,30.10,NNE,32,4.0,4.0,44,0.00,CLR,SCT,0.00,WeatherDisplay:10.37,2013-04-22 20:33:00,
2013-04-22 16:34:00,65.3,42.8,30.10,NNE,32,5.8,5.8,44,0.00,CLR,SCT,0.00,WeatherDisplay:10.37,2013-04-22 20:34:00,
2013-04-22 16:39:00,65.5,43.0,30.10,NE,40,9.2,9.2,44,0.00,CLR,SCT,0.00,WeatherDisplay:10.37,2013-04-22 20:39:00,
2013-04-22 16:41:00,65.5,43.6,30.10,NE,43,5.8,5.8,45,0.00,CLR,SCT,0.00,WeatherDisplay:10.37,2013-04-22 20:41:00,
2013-04-22 16:43:00,65.6,43.1,30.10,ENE,72,10.4,10.4,44,0.00,CLR,SCT,0.00,WeatherDisplay:10.37,2013-04-22 20:43:00,
2013-04-22 16:44:00,65.6,43.1,30.10,ENE,72,10.4,10.4,44,0.00,CLR,SCT,0.00,WeatherDisplay:10.37,2013-04-22 20:44:00,
2013-04-22 16:45:00,65.6,43.1,30.10,ENE,71,7.0,7.0,44,0.00,CLR,SCT,0.00,WeatherDisplay:10.37,2013-04-22 20:45:00,
2013-04-22 16:47:00,65.6,43.7,30.10,ENE,67,5.8,5.8,45,0.00,CLR,SCT,0.00,WeatherDisplay:10.37,2013-04-22 20:47:00,
2013-04-22 16:48:00,65.6,43.1,30.10,NE,48,10.4,10.4,44,0.00,CLR,SCT,0.00,WeatherDisplay:10.37,2013-04-22 20:48:00,
2013-04-22 16:50:00,65.6,43.1,30.09,ENE,67,7.0,7.0,44,0.00,CLR,SCT,0.00,WeatherDisplay:10.37,2013-04-22 20:50:00,
2013-04-22 16:52:00,65.6,42.5,30.09,ENE,69,6.9,6.9,43,0.00,CLR,SCT,0.00,WeatherDisplay:10.37,2013-04-22 20:52:00,
2013-04-22 16:54:00,65.6,42.5,30.09,ENE,69,6.9,6.9,43,0.00,CLR,SCT,0.00,WeatherDisplay:10.37,2013-04-22 20:54:00,
2013-04-22 16:55:00,65.5,42.4,30.09,ENE,70,5.8,5.8,43,0.00,CLR,SCT,0.00,WeatherDisplay:10.37,2013-04-22 20:55:00,
2013-04-22 16:57:00,65.6,43.7,30.09,ENE,70,4.6,4.6,45,0.00,CLR,SCT,0.00,WeatherDisplay:10.37,2013-04-22 20:57:00,
2013-04-22 16:59:00,65.6,43.7,30.09,ENE,70,2.3,2.3,45,0.00,CLR,SCT,0.00,WeatherDisplay:10.37,2013-04-22 20:59:00,
2013-04-22 17:00:00,65.6,43.7,30.09,ENE,70,1.1,1.1,45,0.00,CLR,SCT,0.00,WeatherDisplay:10.37,2013-04-22 21:00:00,
2013-04-22 17:02:00,65.8,43.3,30.09,NE,40,5.8,5.8,44,0.00,CLR,SCT,0.00,WeatherDisplay:10.37,2013-04-22 21:02:00,
2013-04-22 17:03:00,65.8,43.9,30.09,NE,40,5.8,5.8,45,0.00,CLR,SCT,0.00,WeatherDisplay:10.37,2013-04-22 21:03:00,
2013-04-22 17:05:00,66.0,43.5,30.09,NE,55,10.4,10.4,44,0.00,CLR,SCT,0.00,WeatherDisplay:10.37,2013-04-22 21:05:00,
2013-04-22 17:07:00,66.1,44.1,30.09,ENE,74,5.0,5.0,45,0.00,CLR,SCT,0.00,WeatherDisplay:10.37,2013-04-22 21:07:00,
2013-04-22 17:08:00,66.1,44.1,30.09,ENE,74,5.8,5.8,45,0.00,CLR,SCT,0.00,WeatherDisplay:10.37,2013-04-22 21:08:00,
2013-04-22 17:09:00,66.1,42.9,30.09,ENE,71,5.8,5.8,43,0.00,CLR,SCT,0.00,WeatherDisplay:10.37,2013-04-22 21:09:00,
2013-04-22 17:10:00,66.1,42.9,30.09,ENE,71,4.6,4.6,43,0.00,CLR,SCT,0.00,WeatherDisplay:10.37,2013-04-22 21:10:00,
2013-04-22 17:15:00,66.1,43.5,30.09,ENE,60,9.2,9.2,44,0.00,CLR,SCT,0.00,WeatherDisplay:10.37,2013-04-22 21:15:00,
2013-04-22 17:16:00,66.1,42.9,30.09,ENE,60,9.2,9.2,43,0.00,CLR,SCT,0.00,WeatherDisplay:10.37,2013-04-22 21:16:00,
2013-04-22 17:18:00,66.0,42.9,30.09,ENE,64,6.9,6.9,43,0.00,CLR,SCT,0.00,WeatherDisplay:10.37,2013-04-22 21:18:00,
2013-04-22 17:21:00,66.0,42.9,30.09,NE,42,5.8,5.8,43,0.00,CLR,SCT,0.00,WeatherDisplay:10.37,2013-04-22 21:21:00,
2013-04-22 17:22:00,66.0,42.9,30.09,NE,42,5.0,5.3,43,0.00,CLR,SCT,0.00,WeatherDisplay:10.37,2013-04-22 21:22:00,
2013-04-22 17:23:00,66.0,42.2,30.09,NE,42,10.4,10.4,42,0.00,CLR,SCT,0.00,WeatherDisplay:10.37,2013-04-22 21:23:00,
2013-04-22 17:25:00,66.0,42.9,30.08,NE,47,5.8,5.8,43,0.00,CLR,SCT,0.00,WeatherDisplay:10.37,2013-04-22 21:25:00,
2013-04-22 17:26:00,66.0,42.9,30.08,ENE,57,6.9,6.9,43,0.00,CLR,SCT,0.00,WeatherDisplay:10.37,2013-04-22 21:26:00,
2013-04-22 17:28:00,66.0,42.9,30.08,ENE,57,3.5,3.5,43,0.00,CLR,SCT,0.00,WeatherDisplay:10.37,2013-04-22 21:28:00,
2013-04-22 17:30:00,66.0,43.5,30.08,ENE,57,2.3,0.0,44,0.00,CLR,SCT,0.00,WeatherDisplay:10.37,2013-04-22 21:30:00,
2013-04-22 17:32:00,66.0,42.9,30.08,ENE,57,5.8,5.8,43,0.00,CLR,SCT,0.00,WeatherDisplay:10.37,2013-04-22 21:32:00,
2013-04-22 17:33:00,66.1,42.9,30.08,NE,34,9.2,9.2,43,0.00,CLR,SCT,0.00,WeatherDisplay:10.37,2013-04-22 21:33:00,
2013-04-22 17:35:00,66.1,42.9,30.08,NE,36,6.9,6.9,43,0.00,CLR,SCT,0.00,WeatherDisplay:10.37,2013-04-22 21:35:00,
2013-04-22 17:38:00,66.1,43.5,30.08,ENE,63,6.9,6.9,44,0.00,CLR,SCT,0.00,WeatherDisplay:10.37,2013-04-22 21:38:00,
2013-04-22 17:40:00,66.1,42.3,30.08,ENE,63,6.9,6.9,42,0.00,CLR,SCT,0.00,WeatherDisplay:10.37,2013-04-22 21:40:00,
2013-04-22 17:41:00,66.1,42.9,30.08,ENE,63,5.8,5.8,43,0.00,CLR,SCT,0.00,WeatherDisplay:10.37,2013-04-22 21:41:00,
2013-04-22 17:42:00,66.1,42.9,30.08,ENE,63,4.6,4.6,43,0.00,CLR,SCT,0.00,WeatherDisplay:10.37,2013-04-22 21:42:00,
2013-04-22 17:43:00,66.1,42.9,30.08,NE,55,3.5,3.5,43,0.00,CLR,SCT,0.00,WeatherDisplay:10.37,2013-04-22 21:43:00,
2013-04-22 17:45:00,66.1,42.9,30.08,NE,55,5.8,5.8,43,0.00,CLR,SCT,0.00,WeatherDisplay:10.37,2013-04-22 21:45:00,
2013-04-22 17:46:00,66.1,42.9,30.08,ENE,67,7.0,7.0,43,0.00,CLR,SCT,0.00,WeatherDisplay:10.37,2013-04-22 21:46:00,
2013-04-22 17:48:00,66.1,42.3,30.08,ENE,76,11.5,11.5,42,0.00,CLR,SCT,0.00,WeatherDisplay:10.37,2013-04-22 21:48:00,
2013-04-22 17:49:00,66.1,42.9,30.08,ENE,75,9.2,9.2,43,0.00,CLR,SCT,0.00,WeatherDisplay:10.37,2013-04-22 21:49:00,
2013-04-22 17:50:00,66.1,42.3,30.08,ENE,75,6.9,6.9,42,0.00,CLR,SCT,0.00,WeatherDisplay:10.37,2013-04-22 21:50:00,
2013-04-22 17:51:00,66.1,42.9,30.07,ENE,74,5.0,5.0,43,0.00,CLR,SCT,0.00,WeatherDisplay:10.37,2013-04-22 21:51:00,
2013-04-22 17:53:00,66.0,42.2,30.07,ENE,74,3.5,3.5,42,0.00,CLR,SCT,0.00,WeatherDisplay:10.37,2013-04-22 21:53:00,
2013-04-22 17:55:00,66.0,42.9,30.07,ENE,74,4.6,4.6,43,0.00,CLR,SCT,0.00,WeatherDisplay:10.37,2013-04-22 21:55:00,
2013-04-22 17:56:00,66.0,42.9,30.07,ENE,66,10.4,10.4,43,0.00,CLR,SCT,0.00,WeatherDisplay:10.37,2013-04-22 21:56:00,
2013-04-22 17:57:00,66.0,42.2,30.07,ENE,59,10.4,10.4,42,0.00,CLR,SCT,0.00,WeatherDisplay:10.37,2013-04-22 21:57:00,
2013-04-22 18:01:00,66.0,42.2,30.07,ENE,59,4.6,4.6,42,0.00,CLR,SCT,0.00,WeatherDisplay:10.37,2013-04-22 22:01:00,
2013-04-22 18:02:00,65.8,42.1,30.07,ENE,59,4.6,4.6,42,0.00,CLR,SCT,0.00,WeatherDisplay:10.37,2013-04-22 22:02:00,
2013-04-22 18:03:00,65.8,42.1,30.07,ENE,59,4.6,4.6,42,0.00,CLR,SCT,0.00,WeatherDisplay:10.37,2013-04-22 22:03:00,
2013-04-22 18:06:00,66.0,42.2,30.07,ENE,63,4.6,4.6,42,0.00,CLR,SCT,0.00,WeatherDisplay:10.37,2013-04-22 22:06:00,
2013-04-22 18:07:00,66.0,42.2,30.07,ENE,63,3.5,3.5,42,0.00,CLR,SCT,0.00,WeatherDisplay:10.37,2013-04-22 22:07:00,
2013-04-22 18:10:00,66.0,41.6,30.07,NE,55,7.0,7.0,41,0.00,CLR,SCT,0.00,WeatherDisplay:10.37,2013-04-22 22:10:00,
2013-04-22 18:11:00,66.0,41.6,30.07,NE,53,6.9,6.9,41,0.00,CLR,SCT,0.00,WeatherDisplay:10.37,2013-04-22 22:11:00,
2013-04-22 18:12:00,66.0,42.2,30.07,NE,53,6.9,6.9,42,0.00,CLR,SCT,0.00,WeatherDisplay:10.37,2013-04-22 22:12:00,
2013-04-22 18:14:00,66.0,42.2,30.07,NE,51,5.8,5.8,42,0.00,CLR,SCT,0.00,WeatherDisplay:10.37,2013-04-22 22:14:00,
2013-04-22 18:16:00,66.0,42.2,30.07,NE,51,9.2,9.2,42,0.00,CLR,SCT,0.00,WeatherDisplay:10.37,2013-04-22 22:16:00,
2013-04-22 18:19:00,65.8,42.1,30.07,NE,44,10.4,10.4,42,0.00,CLR,SCT,0.00,WeatherDisplay:10.37,2013-04-22 22:19:00,
2013-04-22 18:20:00,65.8,41.4,30.07,NE,44,4.6,4.6,41,0.00,CLR,SCT,0.00,WeatherDisplay:10.37,2013-04-22 22:20:00,
2013-04-22 18:21:00,65.8,42.1,30.07,NE,44,5.0,5.0,42,0.00,CLR,SCT,0.00,WeatherDisplay:10.37,2013-04-22 22:21:00,
2013-04-22 18:22:00,65.8,42.1,30.07,NE,44,4.0,4.0,42,0.00,CLR,SCT,0.00,WeatherDisplay:10.37,2013-04-22 22:22:00,
2013-04-22 18:24:00,65.8,42.1,30.07,NE,45,3.5,3.5,42,0.00,CLR,SCT,0.00,WeatherDisplay:10.37,2013-04-22 22:24:00,
2013-04-22 18:26:00,65.8,42.7,30.07,ENE,64,10.4,10.4,43,0.00,CLR,SCT,0.00,WeatherDisplay:10.37,2013-04-22 22:26:00,
2013-04-22 18:27:00,65.8,42.1,30.07,ENE,63,9.2,9.2,42,0.00,CLR,SCT,0.00,WeatherDisplay:10.37,2013-04-22 22:27:00,
2013-04-22 18:29:00,65.8,42.1,30.07,ENE,63,8.1,8.1,42,0.00,CLR,SCT,0.00,WeatherDisplay:10.37,2013-04-22 22:29:00,
2013-04-22 18:30:00,65.8,42.1,30.07,ENE,63,5.8,5.8,42,0.00,CLR,SCT,0.00,WeatherDisplay:10.37,2013-04-22 22:30:00,
2013-04-22 18:31:00,65.6,41.9,30.07,ENE,63,6.9,6.9,42,0.00,CLR,SCT,0.00,WeatherDisplay:10.37,2013-04-22 22:31:00,
2013-04-22 18:33:00,65.6,42.5,30.07,ENE,63,4.6,4.6,43,0.00,CLR,SCT,0.00,WeatherDisplay:10.37,2013-04-22 22:33:00,
2013-04-22 18:37:00,65.6,42.5,30.07,ENE,63,5.8,5.8,43,0.00,CLR,SCT,0.00,WeatherDisplay:10.37,2013-04-22 22:37:00,
2013-04-22 18:39:00,65.5,42.4,30.06,ENE,59,6.0,6.0,43,0.00,CLR,SCT,0.00,WeatherDisplay:10.37,2013-04-22 22:39:00,
2013-04-22 18:41:00,65.5,41.8,30.06,ENE,59,4.0,4.0,42,0.00,CLR,SCT,0.00,WeatherDisplay:10.37,2013-04-22 22:41:00,
2013-04-22 18:42:00,65.3,41.6,30.06,ENE,59,5.8,5.8,42,0.00,CLR,SCT,0.00,WeatherDisplay:10.37,2013-04-22 22:42:00,
2013-04-22 18:44:00,65.3,41.6,30.06,ENE,63,5.8,5.8,42,0.00,CLR,SCT,0.00,WeatherDisplay:10.37,2013-04-22 22:44:00,
2013-04-22 18:47:00,65.2,41.5,30.07,ENE,63,6.9,6.9,42,0.00,CLR,SCT,0.00,WeatherDisplay:10.37,2013-04-22 22:47:00,
2013-04-22 18:48:00,65.2,41.5,30.07,ENE,63,8.0,8.0,42,0.00,CLR,SCT,0.00,WeatherDisplay:10.37,2013-04-22 22:48:00,
2013-04-22 18:49:00,65.0,40.7,30.07,ENE,63,8.1,8.1,41,0.00,CLR,SCT,0.00,WeatherDisplay:10.37,2013-04-22 22:49:00,
2013-04-22 18:51:00,65.0,40.7,30.07,ENE,63,6.9,6.9,41,0.00,CLR,SCT,0.00,WeatherDisplay:10.37,2013-04-22 22:51:00,
2013-04-22 18:54:00,65.0,41.3,30.07,ENE,63,4.6,4.6,42,0.00,CLR,SCT,0.00,WeatherDisplay:10.37,2013-04-22 22:54:00,
2013-04-22 18:56:00,65.0,41.3,30.06,ENE,63,3.5,3.5,42,0.00,CLR,SCT,0.00,WeatherDisplay:10.37,2013-04-22 22:56:00,
2013-04-22 18:57:00,64.8,41.2,30.06,ENE,63,3.5,3.5,42,0.00,CLR,SCT,0.00,WeatherDisplay:10.37,2013-04-22 22:57:00,
2013-04-22 18:59:00,64.8,41.2,30.06,North,11,3.5,3.5,42,0.00,CLR,SCT,0.00,WeatherDisplay:10.37,2013-04-22 22:59:00,
2013-04-22 19:01:00,64.8,41.2,30.06,North,11,1.1,0.0,42,0.00,CLR,SCT,0.00,WeatherDisplay:10.37,2013-04-22 23:01:00,
2013-04-22 19:04:00,64.8,41.8,30.06,East,87,1.1,0.0,43,0.00,CLR,SCT,0.00,WeatherDisplay:10.37,2013-04-22 23:04:00,
2013-04-22 19:05:00,64.8,41.2,30.07,East,86,1.1,0.0,42,0.00,CLR,SCT,0.00,WeatherDisplay:10.37,2013-04-22 23:05:00,
2013-04-22 19:08:00,64.7,41.7,30.06,North,9,0.0,0.0,43,0.00,CLR,SCT,0.00,WeatherDisplay:10.37,2013-04-22 23:08:00,
2013-04-22 19:10:00,64.7,41.7,30.06,NNE,26,0.0,0.0,43,0.00,CLR,SCT,0.00,WeatherDisplay:10.37,2013-04-22 23:10:00,
2013-04-22 19:12:00,64.5,40.9,30.06,NNE,28,0.0,0.1,42,0.00,CLR,SCT,0.00,WeatherDisplay:10.37,2013-04-22 23:12:00,
2013-04-22 19:13:00,64.5,41.5,30.06,NNE,28,1.1,1.1,43,0.00,CLR,SCT,0.00,WeatherDisplay:10.37,2013-04-22 23:13:00,
2013-04-22 19:15:00,64.3,40.7,30.06,NNE,32,4.0,4.0,42,0.00,CLR,SCT,0.00,WeatherDisplay:10.37,2013-04-22 23:15:00,
2013-04-22 19:17:00,64.3,40.7,30.06,NNE,32,3.5,3.5,42,0.00,CLR,SCT,0.00,WeatherDisplay:10.37,2013-04-22 23:17:00,
2013-04-22 19:18:00,64.2,40.6,30.06,NNE,32,4.6,4.6,42,0.00,CLR,SCT,0.00,WeatherDisplay:10.37,2013-04-22 23:18:00,
2013-04-22 19:20:00,64.2,41.2,30.06,NNE,32,3.5,3.5,43,0.00,CLR,SCT,0.00,WeatherDisplay:10.37,2013-04-22 23:20:00,
2013-04-22 19:22:00,64.0,41.0,30.06,NNE,32,2.3,0.0,43,0.00,CLR,SCT,0.00,WeatherDisplay:10.37,2013-04-22 23:22:00,
2013-04-22 19:25:00,63.9,41.0,30.06,NNE,32,1.1,1.1,43,0.00,CLR,SCT,0.00,WeatherDisplay:10.37,2013-04-22 23:25:00,
2013-04-22 19:27:00,63.7,40.8,30.06,NNE,32,1.1,0.0,43,0.00,CLR,SCT,0.00,WeatherDisplay:10.37,2013-04-22 23:27:00,
2013-04-22 19:29:00,63.5,40.6,30.06,NNE,32,0.0,0.0,43,0.00,CLR,SCT,0.00,WeatherDisplay:10.37,2013-04-22 23:29:00,
2013-04-22 19:31:00,63.4,40.5,30.06,NNE,32,0.0,0.0,43,0.00,CLR,SCT,0.00,WeatherDisplay:10.37,2013-04-22 23:31:00,
2013-04-22 19:32:00,63.4,40.5,30.07,NNE,32,0.0,0.0,43,0.00,CLR,SCT,0.00,WeatherDisplay:10.37,2013-04-22 23:32:00,
2013-04-22 19:36:00,63.1,40.2,30.07,NNE,32,0.0,0.0,43,0.00,CLR,SCT,0.00,WeatherDisplay:10.37,2013-04-22 23:36:00,
2013-04-22 19:38:00,62.9,40.0,30.07,NNE,29,1.1,0.0,43,0.00,CLR,SCT,0.00,WeatherDisplay:10.37,2013-04-22 23:38:00,
2013-04-22 19:40:00,62.7,39.9,30.07,NNE,30,0.0,0.0,43,0.00,CLR,SCT,0.00,WeatherDisplay:10.37,2013-04-22 23:40:00,
2013-04-22 19:41:00,62.7,40.5,30.07,NE,44,0.0,0.0,44,0.00,CLR,SCT,0.00,WeatherDisplay:10.37,2013-04-22 23:41:00,
2013-04-22 19:42:00,62.6,39.8,30.07,NE,44,0.0,0.0,43,0.00,CLR,SCT,0.00,WeatherDisplay:10.37,2013-04-22 23:42:00,
2013-04-22 19:45:00,62.4,40.2,30.07,NE,44,0.0,0.0,44,0.00,CLR,SCT,0.00,WeatherDisplay:10.37,2013-04-22 23:45:00,
2013-04-22 19:46:00,62.3,40.1,30.07,NE,44,0.0,0.0,44,0.00,CLR,SCT,0.00,WeatherDisplay:10.37,2013-04-22 23:46:00,
2013-04-22 19:49:00,62.0,39.8,30.07,NE,44,0.0,0.0,44,0.00,CLR,SCT,0.00,WeatherDisplay:10.37,2013-04-22 23:49:00,
2013-04-22 19:51:00,61.8,40.2,30.07,East,82,0.0,0.0,45,0.00,CLR,SCT,0.00,WeatherDisplay:10.37,2013-04-22 23:51:00,
2013-04-22 19:52:00,61.6,40.0,30.07,East,82,0.0,0.0,45,0.00,CLR,SCT,0.00,WeatherDisplay:10.37,2013-04-22 23:52:00,
2013-04-22 19:54:00,61.3,39.8,30.07,East,82,0.0,0.0,45,0.00,CLR,SCT,0.00,WeatherDisplay:10.37,2013-04-22 23:54:00,
2013-04-22 19:55:00,61.2,40.2,30.07,East,82,0.0,0.0,46,0.00,CLR,SCT,0.00,WeatherDisplay:10.37,2013-04-22 23:55:00,
2013-04-22 19:56:00,61.0,40.1,30.07,East,82,0.0,0.0,46,0.00,CLR,SCT,0.00,WeatherDisplay:10.37,2013-04-22 23:56:00,
2013-04-22 19:57:00,60.9,40.0,30.07,East,82,0.0,0.0,46,0.00,CLR,SCT,0.00,WeatherDisplay:10.37,2013-04-22 23:57:00,
2013-04-22 19:58:00,60.7,39.8,30.07,East,82,0.0,0.0,46,0.00,CLR,SCT,0.00,WeatherDisplay:10.37,2013-04-22 23:58:00,
2013-04-22 19:59:00,60.5,39.6,30.07,East,82,0.0,0.0,46,0.00,CLR,SCT,0.00,WeatherDisplay:10.37,2013-04-22 23:59:00,
2013-04-22 20:00:00,60.4,39.5,30.07,East,82,0.0,0.0,46,0.00,CLR,SCT,0.00,WeatherDisplay:10.37,2013-04-23 00:00:00,
2013-04-22 20:03:00,59.9,39.1,30.07,East,82,0.0,0.0,46,0.00,CLR,SCT,0.00,WeatherDisplay:10.37,2013-04-23 00:03:00,
2013-04-22 20:04:00,59.8,39.0,30.07,East,82,0.0,0.0,46,0.00,CLR,SCT,0.00,WeatherDisplay:10.37,2013-04-23 00:04:00,
2013-04-22 20:05:00,59.6,38.8,30.07,East,82,0.0,0.0,46,0.00,CLR,SCT,0.00,WeatherDisplay:10.37,2013-04-23 00:05:00,
2013-04-22 20:07:00,59.5,38.7,30.06,East,82,0.0,0.0,46,0.00,CLR,SCT,0.00,WeatherDisplay:10.37,2013-04-23 00:07:00,
2013-04-22 20:08:00,59.3,38.5,30.06,East,82,0.0,0.0,46,0.00,CLR,SCT,0.00,WeatherDisplay:10.37,2013-04-23 00:08:00,
2013-04-22 20:09:00,59.2,39.0,30.06,East,82,0.0,0.0,47,0.00,CLR,SCT,0.00,WeatherDisplay:10.37,2013-04-23 00:09:00,
2013-04-22 20:11:00,58.9,38.7,30.06,NE,45,0.0,0.0,47,0.00,CLR,SCT,0.00,WeatherDisplay:10.37,2013-04-23 00:11:00,
2013-04-22 20:13:00,58.6,38.4,30.06,NE,50,0.0,0.0,47,0.00,CLR,SCT,0.00,WeatherDisplay:10.37,2013-04-23 00:13:00,
2013-04-22 20:14:00,58.4,38.2,30.06,NE,50,0.0,0.0,47,0.00,CLR,SCT,0.00,WeatherDisplay:10.37,2013-04-23 00:14:00,
2013-04-22 20:16:00,58.1,38.5,30.06,NE,50,0.0,0.0,48,0.00,CLR,SCT,0.00,WeatherDisplay:10.37,2013-04-23 00:16:00,
2013-04-22 20:19:00,57.8,38.2,30.06,NE,50,0.0,0.0,48,0.00,CLR,SCT,0.00,WeatherDisplay:10.37,2013-04-23 00:19:00,
2013-04-22 20:21:00,57.5,38.5,30.06,NE,50,0.0,0.0,49,0.00,CLR,SCT,0.00,WeatherDisplay:10.37,2013-04-23 00:21:00,
2013-04-22 20:22:00,57.3,38.3,30.06,NE,50,0.0,0.0,49,0.00,CLR,SCT,0.00,WeatherDisplay:10.37,2013-04-23 00:22:00,
2013-04-22 20:23:00,57.2,38.2,30.07,NE,50,0.0,0.0,49,0.00,CLR,SCT,0.00,WeatherDisplay:10.37,2013-04-23 00:23:00,
2013-04-22 20:26:00,56.9,38.4,30.07,NE,50,0.0,0.0,50,0.00,CLR,SCT,0.00,WeatherDisplay:10.37,2013-04-23 00:26:00,
2013-04-22 20:29:00,56.3,37.9,30.07,NE,50,0.0,0.0,50,0.00,CLR,SCT,0.00,WeatherDisplay:10.37,2013-04-23 00:29:00,
2013-04-22 20:31:00,56.2,37.8,30.07,NE,50,0.0,0.0,50,0.00,CLR,SCT,0.00,WeatherDisplay:10.37,2013-04-23 00:31:00,
2013-04-22 20:33:00,55.9,37.5,30.07,NE,50,0.0,0.0,50,0.00,CLR,SCT,0.00,WeatherDisplay:10.37,2013-04-23 00:33:00,
2013-04-22 20:35:00,55.6,37.7,30.07,NE,50,0.0,0.0,51,0.00,CLR,SCT,0.00,WeatherDisplay:10.37,2013-04-23 00:35:00,
2013-04-22 20:36:00,55.4,37.6,30.07,NE,50,0.0,0.0,51,0.00,CLR,SCT,0.00,WeatherDisplay:10.37,2013-04-23 00:36:00,
2013-04-22 20:38:00,55.1,37.3,30.07,NE,50,0.0,0.0,51,0.00,CLR,SCT,0.00,WeatherDisplay:10.37,2013-04-23 00:38:00,
2013-04-22 20:41:00,54.7,37.4,30.07,NE,50,0.0,0.0,52,0.00,CLR,SCT,0.00,WeatherDisplay:10.37,2013-04-23 00:41:00,
2013-04-22 20:42:00,54.5,37.2,30.07,NE,50,0.0,0.0,52,0.00,,SCT,0.00,WeatherDisplay:10.37,2013-04-23 00:42:00,
2013-04-22 20:43:00,54.5,37.7,30.07,NE,50,0.0,0.0,53,0.00,,SCT,0.00,WeatherDisplay:10.37,2013-04-23 00:43:00,
2013-04-22 20:47:00,53.9,37.1,30.08,NE,50,0.0,0.0,53,0.00,,SCT,0.00,WeatherDisplay:10.37,2013-04-23 00:47:00,
2013-04-22 20:48:00,53.8,37.1,30.08,NE,50,0.0,0.0,53,0.00,,SCT,0.00,WeatherDisplay:10.37,2013-04-23 00:48:00,
2013-04-22 20:50:00,53.5,36.8,30.08,NE,50,0.0,0.0,53,0.00,,SCT,0.00,WeatherDisplay:10.37,2013-04-23 00:50:00,
2013-04-22 20:52:00,53.2,36.5,30.08,NE,50,0.0,0.0,53,0.00,,SCT,0.00,WeatherDisplay:10.37,2013-04-23 00:52:00,
2013-04-22 20:56:00,52.8,36.1,30.08,NE,50,0.0,0.0,53,0.00,,SCT,0.00,WeatherDisplay:10.37,2013-04-23 00:56:00,
2013-04-22 20:57:00,52.6,35.5,30.08,NE,50,0.0,0.0,52,0.00,,SCT,0.00,WeatherDisplay:10.37,2013-04-23 00:57:00,
2013-04-22 20:58:00,52.6,35.5,30.08,NE,50,0.0,0.0,52,0.00,,SCT,0.00,WeatherDisplay:10.37,2013-04-23 00:58:00,
2013-04-22 20:59:00,52.5,35.8,30.08,NE,50,0.0,0.0,53,0.00,,SCT,0.00,WeatherDisplay:10.37,2013-04-23 00:59:00,
2013-04-22 21:03:00,52.2,36.0,30.08,NE,50,0.0,0.0,54,0.00,,SCT,0.00,WeatherDisplay:10.37,2013-04-23 01:03:00,
2013-04-22 21:04:00,52.0,36.3,30.08,NE,50,0.0,0.0,55,0.00,,SCT,0.00,WeatherDisplay:10.37,2013-04-23 01:04:00,
2013-04-22 21:07:00,51.6,36.4,30.08,NE,50,0.0,0.0,56,0.00,,SCT,0.00,WeatherDisplay:10.37,2013-04-23 01:07:00,
2013-04-22 21:08:00,51.6,36.4,30.08,NE,50,0.0,0.0,56,0.00,,SCT,0.00,WeatherDisplay:10.37,2013-04-23 01:08:00,
2013-04-22 21:11:00,51.3,36.6,30.08,NE,50,0.0,0.0,57,0.00,,SCT,0.00,WeatherDisplay:10.37,2013-04-23 01:11:00,
2013-04-22 21:15:00,51.0,36.7,30.08,NE,50,0.0,0.0,58,0.00,,SCT,0.00,WeatherDisplay:10.37,2013-04-23 01:15:00,
2013-04-22 21:16:00,50.8,36.5,30.08,NE,50,0.0,0.0,58,0.00,,SCT,0.00,WeatherDisplay:10.37,2013-04-23 01:16:00,
2013-04-22 21:17:00,50.8,36.5,30.08,NE,50,0.0,0.0,58,0.00,,SCT,0.00,WeatherDisplay:10.37,2013-04-23 01:17:00,
2013-04-22 21:19:00,50.5,36.3,30.08,NE,50,0.0,0.0,58,0.00,,SCT,0.00,WeatherDisplay:10.37,2013-04-23 01:19:00,
2013-04-22 21:21:00,50.5,36.3,30.08,NE,50,0.0,0.0,58,0.00,,SCT,0.00,WeatherDisplay:10.37,2013-04-23 01:21:00,
2013-04-22 21:22:00,50.4,36.2,30.09,NE,50,0.0,0.0,58,0.00,,SCT,0.00,WeatherDisplay:10.37,2013-04-23 01:22:00,
2013-04-22 21:26:00,50.1,36.3,30.09,NE,50,0.0,0.0,59,0.00,,SCT,0.00,WeatherDisplay:10.37,2013-04-23 01:26:00,
2013-04-22 21:27:00,50.1,36.3,30.09,NE,50,0.0,0.0,59,0.00,,SCT,0.00,WeatherDisplay:10.37,2013-04-23 01:27:00,
2013-04-22 21:29:00,49.9,36.1,30.09,NE,50,0.0,0.0,59,0.00,,SCT,0.00,WeatherDisplay:10.37,2013-04-23 01:29:00,
2013-04-22 21:31:00,49.8,36.0,30.09,NE,50,0.0,0.0,59,0.00,,SCT,0.00,WeatherDisplay:10.37,2013-04-23 01:31:00,
2013-04-22 21:32:00,49.6,35.8,30.09,NE,50,0.0,0.0,59,0.00,,SCT,0.00,WeatherDisplay:10.37,2013-04-23 01:32:00,
2013-04-22 21:34:00,49.5,35.8,30.09,NE,50,0.0,0.0,59,0.00,,SCT,0.00,WeatherDisplay:10.37,2013-04-23 01:34:00,
2013-04-22 21:35:00,49.4,35.7,30.09,NE,50,0.0,0.0,59,0.00,,SCT,0.00,WeatherDisplay:10.37,2013-04-23 01:35:00,
2013-04-22 21:36:00,49.4,35.7,30.09,NE,50,0.0,0.0,59,0.00,,SCT,0.00,WeatherDisplay:10.37,2013-04-23 01:36:00,
2013-04-22 21:40:00,49.1,35.4,30.09,NE,50,0.0,0.0,59,0.00,,SCT,0.00,WeatherDisplay:10.37,2013-04-23 01:40:00,
2013-04-22 21:41:00,48.9,35.2,30.09,NE,50,0.0,0.0,59,0.00,,SCT,0.00,WeatherDisplay:10.37,2013-04-23 01:41:00,
2013-04-22 21:45:00,48.6,34.9,30.09,NE,50,0.0,0.0,59,0.00,,SCT,0.00,WeatherDisplay:10.37,2013-04-23 01:45:00,
2013-04-22 21:46:00,48.6,34.9,30.09,NE,50,0.0,0.0,59,0.00,,SCT,0.00,WeatherDisplay:10.37,2013-04-23 01:46:00,
2013-04-22 21:47:00,48.5,34.8,30.09,NE,50,0.0,0.0,59,0.00,,SCT,0.00,WeatherDisplay:10.37,2013-04-23 01:47:00,
2013-04-22 21:50:00,48.3,34.6,30.09,NE,50,0.0,0.0,59,0.00,,SCT,0.00,WeatherDisplay:10.37,2013-04-23 01:50:00,
2013-04-22 21:51:00,48.3,34.6,30.09,NE,50,0.0,0.0,59,0.00,,SCT,0.00,WeatherDisplay:10.37,2013-04-23 01:51:00,
2013-04-22 21:52:00,48.3,34.6,30.09,NE,50,0.0,0.0,59,0.00,,SCT,0.00,WeatherDisplay:10.37,2013-04-23 01:52:00,
2013-04-22 21:54:00,48.2,34.5,30.09,NE,50,0.0,0.0,59,0.00,,SCT,0.00,WeatherDisplay:10.37,2013-04-23 01:54:00,
2013-04-22 21:55:00,48.2,34.5,30.09,NE,50,0.0,0.0,59,0.00,,SCT,0.00,WeatherDisplay:10.37,2013-04-23 01:55:00,
2013-04-22 21:56:00,48.0,34.3,30.09,NE,50,0.0,0.0,59,0.00,,SCT,0.00,WeatherDisplay:10.37,2013-04-23 01:56:00,
2013-04-22 21:58:00,48.0,34.8,30.09,NE,50,0.0,0.0,60,0.00,,SCT,0.00,WeatherDisplay:10.37,2013-04-23 01:58:00,
2013-04-22 22:00:00,47.9,35.1,30.09,NE,50,0.0,0.0,61,0.00,,SCT,0.00,WeatherDisplay:10.37,2013-04-23 02:00:00,
2013-04-22 22:01:00,47.9,35.1,30.09,NE,50,0.0,0.0,61,0.00,,SCT,0.00,WeatherDisplay:10.37,2013-04-23 02:01:00,
2013-04-22 22:04:00,47.7,34.9,30.09,NE,50,0.0,0.0,61,0.00,,SCT,0.00,WeatherDisplay:10.37,2013-04-23 02:04:00,
2013-04-22 22:05:00,47.7,34.9,30.09,NE,50,0.0,0.0,61,0.00,,SCT,0.00,WeatherDisplay:10.37,2013-04-23 02:05:00,
2013-04-22 22:08:00,47.6,34.8,30.09,NE,50,0.0,0.0,61,0.00,,SCT,0.00,WeatherDisplay:10.37,2013-04-23 02:08:00,
2013-04-22 22:09:00,47.4,34.6,30.09,NE,50,0.0,0.0,61,0.00,,SCT,0.00,WeatherDisplay:10.37,2013-04-23 02:09:00,
2013-04-22 22:10:00,47.4,34.6,30.09,NE,50,0.0,0.0,61,0.00,,SCT,0.00,WeatherDisplay:10.37,2013-04-23 02:10:00,
2013-04-22 22:13:00,47.3,34.5,30.09,NE,50,0.0,0.0,61,0.00,,SCT,0.00,WeatherDisplay:10.37,2013-04-23 02:13:00,
2013-04-22 22:14:00,47.1,34.3,30.09,NE,50,0.0,0.0,61,0.00,,SCT,0.00,WeatherDisplay:10.37,2013-04-23 02:14:00,
2013-04-22 22:15:00,47.1,34.3,30.09,NE,50,0.0,0.0,61,0.00,,SCT,0.00,WeatherDisplay:10.37,2013-04-23 02:15:00,
2013-04-22 22:19:00,47.0,34.2,30.09,NE,50,0.0,0.0,61,0.00,,SCT,0.00,WeatherDisplay:10.37,2013-04-23 02:19:00,
2013-04-22 22:20:00,46.8,34.0,30.09,NE,50,0.0,0.0,61,0.00,,SCT,0.00,WeatherDisplay:10.37,2013-04-23 02:20:00,
2013-04-22 22:21:00,46.8,34.0,30.09,NE,50,0.0,0.0,61,0.00,,SCT,0.00,WeatherDisplay:10.37,2013-04-23 02:21:00,
2013-04-22 22:24:00,46.7,34.4,30.09,NE,50,0.0,0.0,62,0.00,,SCT,0.00,WeatherDisplay:10.37,2013-04-23 02:24:00,
2013-04-22 22:25:00,46.7,34.4,30.09,NE,50,0.0,0.0,62,0.00,,SCT,0.00,WeatherDisplay:10.37,2013-04-23 02:25:00,
2013-04-22 22:26:00,46.5,34.2,30.09,NE,50,0.0,0.0,62,0.00,,SCT,0.00,WeatherDisplay:10.37,2013-04-23 02:26:00,
2013-04-22 22:27:00,46.5,34.2,30.09,NE,50,0.0,0.0,62,0.00,,SCT,0.00,WeatherDisplay:10.37,2013-04-23 02:27:00,
2013-04-22 22:32:00,46.4,34.5,30.10,NE,50,0.0,0.0,63,0.00,,SCT,0.00,WeatherDisplay:10.37,2013-04-23 02:32:00,
2013-04-22 22:34:00,46.2,34.3,30.10,NE,50,0.0,0.0,63,0.00,,SCT,0.00,WeatherDisplay:10.37,2013-04-23 02:34:00,
2013-04-22 22:36:00,46.1,34.2,30.10,NE,50,0.0,0.0,63,0.00,,SCT,0.00,WeatherDisplay:10.37,2013-04-23 02:36:00,
2013-04-22 22:37:00,46.1,34.2,30.10,NE,50,0.0,0.0,63,0.00,,SCT,0.00,WeatherDisplay:10.37,2013-04-23 02:37:00,
2013-04-22 22:41:00,45.8,33.9,30.10,NE,50,0.0,0.0,63,0.00,,SCT,0.00,WeatherDisplay:10.37,2013-04-23 02:41:00,
2013-04-22 22:43:00,45.8,34.3,30.10,NE,50,0.0,0.0,64,0.00,,SCT,0.00,WeatherDisplay:10.37,2013-04-23 02:43:00,
2013-04-22 22:44:00,45.7,34.2,30.10,NE,50,0.0,0.0,64,0.00,,SCT,0.00,WeatherDisplay:10.37,2013-04-23 02:44:00,
2013-04-22 22:46:00,45.7,34.2,30.10,NE,50,0.0,0.0,64,0.00,,SCT,0.00,WeatherDisplay:10.37,2013-04-23 02:46:00,
2013-04-22 22:47:00,45.7,34.2,30.10,NE,50,0.0,0.0,64,0.00,,SCT,0.00,WeatherDisplay:10.37,2013-04-23 02:47:00,
2013-04-22 22:51:00,45.4,33.9,30.10,NE,50,0.0,0.0,64,0.00,,SCT,0.00,WeatherDisplay:10.37,2013-04-23 02:51:00,
2013-04-22 22:52:00,45.4,33.9,30.10,NE,50,0.0,0.0,64,0.00,,SCT,0.00,WeatherDisplay:10.37,2013-04-23 02:52:00,
2013-04-22 22:53:00,45.2,33.7,30.10,NE,50,0.0,0.0,64,0.00,,SCT,0.00,WeatherDisplay:10.37,2013-04-23 02:53:00,
2013-04-22 22:54:00,45.2,33.7,30.10,NE,50,0.0,0.0,64,0.00,,SCT,0.00,WeatherDisplay:10.37,2013-04-23 02:54:00,
2013-04-22 22:55:00,45.2,33.7,30.10,NE,50,0.0,0.0,64,0.00,,SCT,0.00,WeatherDisplay:10.37,2013-04-23 02:55:00,
2013-04-22 22:57:00,45.1,33.6,30.10,NE,50,0.0,0.0,64,0.00,,SCT,0.00,WeatherDisplay:10.37,2013-04-23 02:57:00,
2013-04-22 22:58:00,45.1,33.6,30.10,NE,50,0.0,0.0,64,0.00,,SCT,0.00,WeatherDisplay:10.37,2013-04-23 02:58:00,
2013-04-22 23:01:00,44.9,33.5,30.10,NE,50,0.0,0.0,64,0.00,,SCT,0.00,WeatherDisplay:10.37,2013-04-23 03:01:00,
2013-04-22 23:02:00,44.9,33.5,30.10,NE,50,0.0,0.0,64,0.00,,SCT,0.00,WeatherDisplay:10.37,2013-04-23 03:02:00,
2013-04-22 23:05:00,44.8,33.7,30.10,NE,50,0.0,0.0,65,0.00,,SCT,0.00,WeatherDisplay:10.37,2013-04-23 03:05:00,
2013-04-22 23:06:00,44.6,33.6,30.10,NE,50,0.0,0.0,65,0.00,,SCT,0.00,WeatherDisplay:10.37,2013-04-23 03:06:00,
2013-04-22 23:07:00,44.6,33.6,30.10,NE,50,0.0,0.0,65,0.00,,SCT,0.00,WeatherDisplay:10.37,2013-04-23 03:07:00,
2013-04-22 23:09:00,44.6,33.6,30.10,NE,50,0.0,0.0,65,0.00,,SCT,0.00,WeatherDisplay:10.37,2013-04-23 03:09:00,
2013-04-22 23:12:00,44.5,33.5,30.10,NE,50,0.0,0.0,65,0.00,,SCT,0.00,WeatherDisplay:10.37,2013-04-23 03:12:00,
2013-04-22 23:14:00,44.5,33.5,30.10,NE,50,0.0,0.0,65,0.00,,SCT,0.00,WeatherDisplay:10.37,2013-04-23 03:14:00,
2013-04-22 23:18:00,44.3,33.3,30.10,NE,50,0.0,0.0,65,0.00,,SCT,0.00,WeatherDisplay:10.37,2013-04-23 03:18:00,
2013-04-22 23:19:00,44.3,33.3,30.10,NE,50,0.0,0.0,65,0.00,,SCT,0.00,WeatherDisplay:10.37,2013-04-23 03:19:00,
2013-04-22 23:22:00,44.2,33.2,30.10,NE,50,0.0,0.0,65,0.00,,SCT,0.00,WeatherDisplay:10.37,2013-04-23 03:22:00,
2013-04-22 23:23:00,44.2,33.2,30.10,NE,50,0.0,0.0,65,0.00,,SCT,0.00,WeatherDisplay:10.37,2013-04-23 03:23:00,
2013-04-22 23:24:00,44.2,33.2,30.10,NE,50,0.0,0.0,65,0.00,,SCT,0.00,WeatherDisplay:10.37,2013-04-23 03:24:00,
2013-04-22 23:27:00,44.1,33.5,30.10,NE,50,0.0,0.0,66,0.00,,SCT,0.00,WeatherDisplay:10.37,2013-04-23 03:27:00,
2013-04-22 23:28:00,44.1,33.1,30.10,NE,50,0.0,0.0,65,0.00,,SCT,0.00,WeatherDisplay:10.37,2013-04-23 03:28:00,
2013-04-22 23:32:00,43.9,32.9,30.11,NE,50,0.0,0.0,65,0.00,,SCT,0.00,WeatherDisplay:10.37,2013-04-23 03:32:00,
2013-04-22 23:33:00,43.9,32.9,30.11,NE,50,0.0,0.0,65,0.00,,SCT,0.00,WeatherDisplay:10.37,2013-04-23 03:33:00,
2013-04-22 23:34:00,43.9,32.9,30.11,NE,50,0.0,0.0,65,0.00,,SCT,0.00,WeatherDisplay:10.37,2013-04-23 03:34:00,
2013-04-22 23:37:00,43.8,32.8,30.11,NE,50,0.0,0.0,65,0.00,,SCT,0.00,WeatherDisplay:10.37,2013-04-23 03:37:00,
2013-04-22 23:39:00,43.6,32.6,30.11,NE,50,0.0,0.0,65,0.00,,SCT,0.00,WeatherDisplay:10.37,2013-04-23 03:39:00,
2013-04-22 23:40:00,43.6,32.6,30.11,NE,50,0.0,0.0,65,0.00,,SCT,0.00,WeatherDisplay:10.37,2013-04-23 03:40:00,
2013-04-22 23:42:00,43.5,32.5,30.11,NE,50,0.0,0.0,65,0.00,,SCT,0.00,WeatherDisplay:10.37,2013-04-23 03:42:00,
2013-04-22 23:45:00,43.5,32.5,30.11,NE,50,0.0,0.0,65,0.00,,SCT,0.00,WeatherDisplay:10.37,2013-04-23 03:45:00,
2013-04-22 23:47:00,43.3,32.7,30.11,NE,50,0.0,0.0,66,0.00,,SCT,0.00,WeatherDisplay:10.37,2013-04-23 03:47:00,
2013-04-22 23:49:00,43.3,32.7,30.11,NE,50,0.0,0.0,66,0.00,,SCT,0.00,WeatherDisplay:10.37,2013-04-23 03:49:00,
2013-04-22 23:50:00,43.3,32.7,30.11,NE,50,0.0,0.0,66,0.00,,SCT,0.00,WeatherDisplay:10.37,2013-04-23 03:50:00,
2013-04-22 23:51:00,43.3,32.7,30.11,NE,50,0.0,0.0,66,0.00,,SCT,0.00,WeatherDisplay:10.37,2013-04-23 03:51:00,
2013-04-22 23:53:00,43.3,32.7,30.11,NE,50,0.0,0.0,66,0.00,,SCT,0.00,WeatherDisplay:10.37,2013-04-23 03:53:00,
2013-04-22 23:55:00,43.2,32.6,30.11,NE,50,0.0,0.0,66,0.00,,SCT,0.00,WeatherDisplay:10.37,2013-04-23 03:55:00,
2013-04-22 23:56:00,43.2,33.0,30.11,NE,50,0.0,0.0,67,0.00,,SCT,0.00,WeatherDisplay:10.37,2013-04-23 03:56:00,
2013-04-22 23:57:00,43.2,33.0,30.11,NE,50,0.0,0.0,67,0.00,,SCT,0.00,WeatherDisplay:10.37,2013-04-23 03:57:00,
2013-04-22 23:58:00,43.2,33.0,30.11,NE,50,0.0,0.0,67,0.00,,SCT,0.00,WeatherDisplay:10.37,2013-04-23 03:58:00,